KC5DAQ-24 Weather Reports


Display with metric or nautical units.
time (UTC)temp
F
wind
direction
speed
MPH
gust
MPH
rain 1hr
in
rain 24hr
in
rain mn
in
humidity
%
barometer
mb
20260508141201 69 0 1.0 4.0 0.00 0.00 0.00 86 1012.0
20260508141101 69 0 1.0 4.0 0.00 0.00 0.00 86 1011.9
20260508141001 69 0 1.0 4.0 0.00 0.00 0.00 86 1011.8
20260508140902 69 0 1.0 4.0 0.00 0.00 0.00 86 1011.7
20260508140800 69 0 1.0 4.0 0.00 0.00 0.00 86 1011.8
20260508140700 69 0 1.0 4.0 0.00 0.00 0.00 86 1011.7
20260508140600 69 0 3.0 4.0 0.00 0.00 0.00 85 1011.7
20260508140501 69 0 3.0 4.0 0.00 0.00 0.00 85 1011.5
20260508140400 69 0 2.0 4.0 0.00 0.00 0.00 85 1011.4
20260508140301 69 0 0.0 3.0 0.00 0.00 0.00 85 1011.5
20260508140201 69 0 0.0 0.0 0.00 0.00 0.00 85 1011.6
20260508140101 69 0 0.0 4.0 0.00 0.00 0.00 84 1011.7
20260508140001 69 0 3.0 6.0 0.00 0.00 0.00 84 1011.5
20260508135900 69 0 3.0 6.0 0.00 0.00 0.00 84 1011.5
20260508135800 69 0 3.0 6.0 0.00 0.00 0.00 84 1011.3
20260508135700 69 0 3.0 6.0 0.00 0.00 0.00 84 1011.3
20260508135559 69 0 3.0 6.0 0.00 0.00 0.00 84 1011.3
20260508135500 69 0 3.0 6.0 0.00 0.00 0.00 84 1011.5
20260508135359 69 0 3.0 6.0 0.00 0.00 0.00 84 1011.5
20260508135300 69 0 3.0 6.0 0.00 0.00 0.00 84 1011.6
20260508135158 69 0 3.0 6.0 0.00 0.00 0.00 84 1011.6
20260508135057 69 0 3.0 6.0 0.00 0.00 0.00 84 1011.6
20260508134959 69 0 2.0 3.0 0.00 0.00 0.00 84 1011.6
20260508134858 69 0 2.0 3.0 0.00 0.00 0.00 84 1011.7
20260508134758 69 0 2.0 3.0 0.00 0.00 0.00 84 1011.7
20260508134658 0 0.0 0.0 0.00 0.00 0.00 1011.6
20260508134559 0 0.0 0.0 0.00 0.00 0.00 1011.6
20260508134456 0 0.0 0.0 0.00 0.00 0.00 1011.7
20260508134357 0 0.0 0.0 0.00 0.00 0.00 1011.7
20260508134257 0 0.0 0.0 0.00 0.00 0.00 1011.7
20260508134158 0 0.0 0.0 0.00 0.00 0.00 1011.8
20260508134056 0 0.0 0.0 0.00 0.00 0.00 1011.7
20260508133955 0 0.0 0.0 0.00 0.00 0.00 1011.7
20260508133855 69 0 1.0 1.0 0.00 0.00 0.00 84 1011.7
20260508133755 69 0 1.0 2.0 0.00 0.00 0.00 84 1011.6
20260508133655 69 0 1.0 3.0 0.00 0.00 0.00 84 1011.7
20260508133555 69 0 1.0 3.0 0.00 0.00 0.00 84 1011.7
20260508133453 69 0 1.0 3.0 0.00 0.00 0.00 84 1011.7
20260508133354 69 0 1.0 5.0 0.00 0.00 0.00 84 1011.7
20260508133253 69 0 1.0 5.0 0.00 0.00 0.00 84 1011.6
20260508133155 69 0 1.0 5.0 0.00 0.00 0.00 84 1011.6
20260508133053 69 0 1.0 5.0 0.00 0.00 0.00 84 1011.7
20260508132952 69 0 1.0 5.0 0.00 0.00 0.00 84 1011.7
20260508132853 69 0 2.0 5.0 0.00 0.00 0.00 84 1011.6
20260508132753 69 0 1.0 5.0 0.00 0.00 0.00 85 1011.6
20260508132653 69 0 1.0 5.0 0.00 0.00 0.00 85 1011.6
20260508132554 69 0 2.0 5.0 0.00 0.00 0.00 85 1011.5
20260508132453 69 0 2.0 5.0 0.00 0.00 0.00 85 1011.5
20260508132353 69 0 2.0 3.0 0.00 0.00 0.00 84 1011.6
20260508132253 69 0 2.0 3.0 0.00 0.00 0.00 84 1011.6
20260508132153 69 0 0.0 0.0 0.00 0.00 0.00 84 1011.6
20260508132054 0 0.0 0.0 0.00 0.00 0.00 1011.8
20260508131951 0 0.0 0.0 0.00 0.00 0.00 1011.7
20260508131851 0 0.0 0.0 0.00 0.00 0.00 1011.8
20260508131751 0 0.0 0.0 0.00 0.00 0.00 1011.8
20260508131651 0 0.0 0.0 0.00 0.00 0.00 1011.8
20260508131551 0 0.0 0.0 0.00 0.00 0.00 1011.7
20260508131449 0 0.0 0.0 0.00 0.00 0.00 1011.7
20260508131350 0 0.0 0.0 0.00 0.00 0.00 1011.7
20260508131249 0 0.0 0.0 0.00 0.00 0.00 1011.7
20260508131150 0 0.0 0.0 0.00 0.00 0.00 1011.7
20260508131049 0 0.0 0.0 0.00 0.00 0.00 1011.7
20260508130948 0 0.0 0.0 0.00 0.00 0.00 1011.7
20260508130847 0 0 2.0 3.0 0.00 0.00 0.00 1011.7
20260508130732 69 0 2.0 3.0 0.00 0.00 0.00 84 1011.7
20260508130603 69 0 2.0 4.0 0.00 0.00 0.00 84 1011.7
20260508130503 69 0 2.0 4.0 0.00 0.00 0.00 84 1011.7
20260508130403 69 0 2.0 4.0 0.00 0.00 0.00 84 1011.7
20260508130303 69 0 2.0 4.0 0.00 0.00 0.00 84 1011.7
20260508130204 69 0 2.0 4.0 0.00 0.00 0.00 84 1011.8
20260508130103 69 0 2.0 4.0 0.00 0.00 0.00 84 1011.7
20260508130004 69 0 2.0 4.0 0.00 0.00 0.00 84 1011.8
20260508125846 69 0 2.0 4.0 0.00 0.00 0.00 84 1011.8
20260508125746 69 0 2.0 4.0 0.00 0.00 0.00 85 1011.8
20260508125645 69 0 2.0 3.0 0.00 0.00 0.00 85 1011.8
20260508125545 69 0 2.0 2.0 0.00 0.00 0.00 86 1011.8
20260508125445 0 0.0 0.0 0.00 0.00 0.00 1011.8
20260508125345 0 0.0 0.0 0.00 0.00 0.00 1011.8
20260508125244 0 0.0 0.0 0.00 0.00 0.00 1011.8
20260508125143 0 0.0 0.0 0.00 0.00 0.00 1011.8
20260508125044 0 0.0 0.0 0.00 0.00 0.00 1011.8
20260508124943 0 0.0 0.0 0.00 0.00 0.00 1011.8
20260508124844 0 0.0 0.0 0.00 0.00 0.00 1011.8
20260508124742 0 0.0 0.0 0.00 0.00 0.00 1011.8
20260508124642 69 0 2.0 3.0 0.00 0.00 0.00 86 1011.8
20260508124542 69 0 2.0 3.0 0.00 0.00 0.00 86 1011.8
20260508124441 69 0 2.0 4.0 0.00 0.00 0.00 86 1011.7
20260508124342 69 0 2.0 6.0 0.00 0.00 0.00 86 1011.8
20260508124240 69 0 2.0 6.0 0.00 0.00 0.00 86 1011.8
20260508124140 69 0 2.0 6.0 0.00 0.00 0.00 86 1011.8
20260508124041 69 0 2.0 6.0 0.00 0.00 0.00 86 1011.8
20260508123940 69 0 2.0 6.0 0.00 0.00 0.00 86 1011.7
20260508123840 69 0 2.0 6.0 0.00 0.00 0.00 86 1011.6
20260508123740 69 0 2.0 6.0 0.00 0.00 0.00 86 1011.6
20260508123639 68 0 2.0 6.0 0.00 0.00 0.00 86 1011.5
20260508123540 68 0 3.0 6.0 0.00 0.00 0.00 86 1011.5
20260508123439 69 0 3.0 5.0 0.00 0.00 0.00 86 1011.4
20260508123340 68 0 2.0 4.0 0.00 0.00 0.00 86 1011.4
20260508123239 68 0 2.0 4.0 0.00 0.00 0.00 86 1011.3
20260508123140 68 0 2.0 3.0 0.00 0.00 0.00 86 1011.3
20260508123039 68 0 2.0 3.0 0.00 0.00 0.00 86 1011.4
20260508122939 68 0 2.0 3.0 0.00 0.00 0.00 86 1011.4
20260508122840 0 0.0 0.0 0.00 0.00 0.00 1011.4
20260508122739 0 0.0 0.0 0.00 0.00 0.00 1011.4
20260508122639 0 0.0 0.0 0.00 0.00 0.00 1011.4
20260508122538 0 0.0 0.0 0.00 0.00 0.00 1011.5
20260508122439 0 0.0 0.0 0.00 0.00 0.00 1011.5
20260508122338 0 0.0 0.0 0.00 0.00 0.00 1011.4
20260508122238 0 0.0 0.0 0.00 0.00 0.00 1011.4
20260508122137 0 0.0 0.0 0.00 0.00 0.00 1011.4
20260508122031 0 0.0 0.0 0.00 0.00 0.00 1011.5
20260508121932 0 0.0 0.0 0.00 0.00 0.00 1011.6
20260508121832 0 0.0 0.0 0.00 0.00 0.00 1011.7
20260508121731 0 0.0 0.0 0.00 0.00 0.00 1011.7
20260508121632 0 0.0 0.0 0.00 0.00 0.00 1011.7
20260508121532 0 0.0 0.0 0.00 0.00 0.00 1011.7
20260508121432 0 0.0 0.0 0.00 0.00 0.00 1011.7
20260508121332 0 0.0 0.0 0.00 0.00 0.00 1011.7
20260508121233 0 0.0 0.0 0.00 0.00 0.00 1011.7
20260508121131 0 0.0 0.0 0.00 0.00 0.00 1011.8
20260508121032 0 0.0 0.0 0.00 0.00 0.00 1011.8
20260508120931 0 0.0 0.0 0.00 0.00 0.00 1011.9
20260508120831 0 0.0 0.0 0.00 0.00 0.00 1012.0
20260508120733 0 0.0 0.0 0.00 0.00 0.00 1012.0
20260508120630 0 0.0 0.0 0.00 0.00 0.00 1012.0
20260508120531 0 0.0 0.0 0.00 0.00 0.00 1012.1
20260508120430 0 0.0 0.0 0.00 0.00 0.00 1012.1
20260508120331 0 0.0 0.0 0.00 0.00 0.00 1012.1
20260508120230 0 0.0 0.0 0.00 0.00 0.00 1012.0
20260508120129 0 0.0 0.0 0.00 0.00 0.00 1011.9
20260508120029 0 0.0 0.0 0.00 0.00 0.00 1011.9
20260508115929 0 0.0 0.0 0.00 0.00 0.00 1011.9
20260508115828 0 0.0 0.0 0.00 0.00 0.00 1011.9
20260508115729 0 0.0 0.0 0.00 0.00 0.00 1011.8
20260508115627 0 0.0 0.0 0.00 0.00 0.00 1011.8
20260508115527 0 0.0 0.0 0.00 0.00 0.00 1011.8
20260508115427 0 0.0 0.0 0.00 0.00 0.00 1011.8
20260508115327 0 0.0 0.0 0.00 0.00 0.00 1011.9
20260508115227 0 0.0 0.0 0.00 0.00 0.00 1011.8
20260508115125 0 0.0 0.0 0.00 0.00 0.00 1011.8
20260508115024 0 0.0 0.0 0.00 0.00 0.00 1011.9
20260508114925 0 0.0 0.0 0.00 0.00 0.00 1011.8
20260508114825 0 0.0 0.0 0.00 0.00 0.00 1011.8
20260508114724 0 0.0 0.0 0.00 0.00 0.00 1011.8
20260508114623 0 0.0 0.0 0.00 0.00 0.00 1011.8
20260508114523 0 0.0 0.0 0.00 0.00 0.00 1011.8
20260508114423 0 0.0 0.0 0.00 0.00 0.00 1011.7
20260508114323 0 0.0 0.0 0.00 0.00 0.00 1011.7
20260508114223 0 0.0 0.0 0.00 0.00 0.00 1011.7
20260508114122 0 0.0 0.0 0.00 0.00 0.00 1011.7
20260508114022 68 0 3.0 6.0 0.00 0.00 0.00 87 1011.8
20260508113922 68 0 3.0 6.0 0.00 0.00 0.00 87 1011.8
20260508113821 68 0 3.0 6.0 0.00 0.00 0.00 87 1011.8
20260508113722 68 0 3.0 6.0 0.00 0.00 0.00 87 1011.7
20260508113619 68 0 3.0 6.0 0.00 0.00 0.00 87 1011.7
20260508113519 68 0 3.0 6.0 0.00 0.00 0.00 87 1011.8
20260508113419 68 0 3.0 6.0 0.00 0.00 0.00 87 1011.8
20260508113319 68 0 3.0 6.0 0.00 0.00 0.00 87 1011.8
20260508113219 68 0 3.0 6.0 0.00 0.00 0.00 87 1011.7
20260508113118 68 0 3.0 6.0 0.00 0.00 0.00 87 1011.7
20260508113019 68 0 1.0 6.0 0.00 0.00 0.00 87 1011.8
20260508112919 68 0 1.0 6.0 0.00 0.00 0.00 87 1011.6
20260508112819 68 0 2.0 6.0 0.00 0.00 0.00 87 1011.6
20260508112718 68 0 2.0 6.0 0.00 0.00 0.00 87 1011.6
20260508112619 68 0 3.0 6.0 0.00 0.00 0.00 87 1011.6
20260508112519 68 0 3.0 6.0 0.00 0.00 0.00 87 1011.5
20260508112419 68 0 2.0 2.0 0.00 0.00 0.00 87 1011.5
20260508112319 0 0.0 0.0 0.00 0.00 0.00 1011.5
20260508112219 0 0.0 0.0 0.00 0.00 0.00 1011.5
20260508112117 0 0.0 0.0 0.00 0.00 0.00 1011.5
20260508112017 0 0.0 0.0 0.00 0.00 0.00 1011.5
20260508111917 0 0.0 0.0 0.00 0.00 0.00 1011.6
20260508111817 0 0.0 0.0 0.00 0.00 0.00 1011.5
20260508111717 0 0.0 0.0 0.00 0.00 0.00 1011.5
20260508111616 0 0.0 0.0 0.00 0.00 0.00 1011.4
20260508111516 0 0.0 0.0 0.00 0.00 0.00 1011.3
20260508111415 0 0.0 0.0 0.00 0.00 0.00 1011.3
20260508111317 0 0.0 0.0 0.00 0.00 0.00 1011.3
20260508111216 0 0.0 0.0 0.00 0.00 0.00 1011.3
20260508111114 0 0.0 0.0 0.00 0.00 0.00 1011.3
20260508111013 0 0.0 0.0 0.00 0.00 0.00 1011.3
20260508110914 0 0.0 0.0 0.00 0.00 0.00 1011.3
20260508110814 0 0.0 0.0 0.00 0.00 0.00 1011.4
20260508110713 0 0.0 0.0 0.00 0.00 0.00 1011.4
20260508110611 0 0.0 0.0 0.00 0.00 0.00 1011.4
20260508110513 0 0.0 0.0 0.00 0.00 0.00 1011.4
20260508110412 0 0.0 0.0 0.00 0.00 0.00 1011.4
20260508110311 0 0.0 0.0 0.00 0.00 0.00 1011.5
20260508110211 0 0.0 0.0 0.00 0.00 0.00 1011.5
20260508110110 0 0.0 0.0 0.00 0.00 0.00 1011.6
20260508110011 0 0.0 0.0 0.00 0.00 0.00 1011.6
20260508105910 0 0.0 0.0 0.00 0.00 0.00 1011.6
20260508105810 0 0.0 0.0 0.00 0.00 0.00 1011.6
20260508105710 0 0.0 0.0 0.00 0.00 0.00 1011.5
20260508105610 0 0.0 0.0 0.00 0.00 0.00 1011.6
20260508105509 0 0.0 0.0 0.00 0.00 0.00 1011.6
20260508105409 0 0.0 0.0 0.00 0.00 0.00 1011.6
20260508105308 0 0.0 0.0 0.00 0.00 0.00 1011.6
20260508105207 0 0.0 0.0 0.00 0.00 0.00 1011.7
20260508105104 0 0.0 0.0 0.00 0.00 0.00 1011.7
20260508105005 0 0.0 0.0 0.00 0.00 0.00 1011.7
20260508104904 0 0.0 0.0 0.00 0.00 0.00 1011.7
20260508104805 0 0.0 0.0 0.00 0.00 0.00 1011.7
20260508104705 0 0.0 0.0 0.00 0.00 0.00 1011.8
20260508104603 0 0.0 0.0 0.00 0.00 0.00 1011.7
20260508104504 0 0.0 0.0 0.00 0.00 0.00 1011.7
20260508104403 0 0.0 0.0 0.00 0.00 0.00 1011.6
20260508104303 0 0.0 0.0 0.00 0.00 0.00 1011.7
20260508104204 0 0.0 0.0 0.00 0.00 0.00 1011.7
20260508104102 0 0.0 0.0 0.00 0.00 0.00 1011.6
20260508104003 0 0.0 0.0 0.00 0.00 0.00 1011.6
20260508103902 0 0.0 0.0 0.00 0.00 0.00 1011.6
20260508103803 0 0.0 0.0 0.00 0.00 0.00 1011.6
20260508103702 0 0.0 0.0 0.00 0.00 0.00 1011.5
20260508103600 0 0.0 0.0 0.00 0.00 0.00 1011.5
20260508103500 69 0 1.0 0.0 0.00 0.00 0.00 87 1011.5
20260508103401 69 0 1.0 1.0 0.00 0.00 0.00 87 1011.4
20260508103300 69 0 1.0 2.0 0.00 0.00 0.00 87 1011.4
20260508103200 69 0 1.0 4.0 0.00 0.00 0.00 87 1011.3
20260508103100 69 0 1.0 4.0 0.00 0.00 0.00 87 1011.3
20260508102958 69 0 1.0 4.0 0.00 0.00 0.00 87 1011.3
20260508102859 69 0 1.0 4.0 0.00 0.00 0.00 87 1011.3
20260508102758 69 0 1.0 4.0 0.00 0.00 0.00 87 1011.2
20260508102658 69 0 1.0 4.0 0.00 0.00 0.00 87 1011.3
20260508102558 69 0 1.0 4.0 0.00 0.00 0.00 87 1011.2
20260508102458 69 0 1.0 4.0 0.00 0.00 0.00 87 1011.2
20260508102357 69 0 2.0 4.0 0.00 0.00 0.00 87 1011.1
20260508102257 69 0 1.0 4.0 0.00 0.00 0.00 87 1011.1
20260508102157 69 0 1.0 3.0 0.00 0.00 0.00 87 1011.1
20260508102057 69 0 2.0 3.0 0.00 0.00 0.00 87 1011.1
20260508101959 69 0 2.0 3.0 0.00 0.00 0.00 87 1011.2
20260508101857 69 0 2.0 3.0 0.00 0.00 0.00 87 1011.2
20260508101758 0 0.0 0.0 0.00 0.00 0.00 1011.2
20260508101658 0 0.0 0.0 0.00 0.00 0.00 1011.2
20260508101557 0 0.0 0.0 0.00 0.00 0.00 1011.3
20260508101456 0 0.0 0.0 0.00 0.00 0.00 1011.3
20260508101357 0 0.0 0.0 0.00 0.00 0.00 1011.3
20260508101256 0 0.0 0.0 0.00 0.00 0.00 1011.3
20260508101157 0 0.0 0.0 0.00 0.00 0.00 1011.3
20260508101054 0 0.0 0.0 0.00 0.00 0.00 1011.4
20260508100954 69 0 2.0 3.0 0.00 0.00 0.00 87 1011.3
20260508100854 69 0 2.0 3.0 0.00 0.00 0.00 87 1011.4
20260508100754 69 0 2.0 3.0 0.00 0.00 0.00 87 1011.5
20260508100653 69 0 2.0 3.0 0.00 0.00 0.00 87 1011.4
20260508100552 69 0 2.0 3.0 0.00 0.00 0.00 87 1011.4
20260508100432 69 0 2.0 3.0 0.00 0.00 0.00 87 1011.4
20260508100332 69 0 2.0 3.0 0.00 0.00 0.00 87 1011.4
20260508100232 69 0 2.0 3.0 0.00 0.00 0.00 87 1011.5
20260508100132 69 0 2.0 3.0 0.00 0.00 0.00 87 1011.5
20260508100033 69 0 2.0 3.0 0.00 0.00 0.00 87 1011.5
20260508095932 69 0 2.0 2.0 0.00 0.00 0.00 86 1011.5
20260508095832 69 0 0.0 0.0 0.00 0.00 0.00 86 1011.5
20260508095731 69 0 0.0 0.0 0.00 0.00 0.00 86 1011.6
20260508095632 69 0 0.0 1.0 0.00 0.00 0.00 86 1011.6
20260508095532 69 0 0.0 2.0 0.00 0.00 0.00 86 1011.5
20260508095433 69 0 0.0 2.0 0.00 0.00 0.00 86 1011.5
20260508095332 69 0 1.0 2.0 0.00 0.00 0.00 86 1011.5
20260508095232 69 0 1.0 2.0 0.00 0.00 0.00 86 1011.4
20260508095131 69 0 1.0 2.0 0.00 0.00 0.00 86 1011.4
20260508095032 69 0 1.0 2.0 0.00 0.00 0.00 86 1011.5
20260508094932 69 0 1.0 7.0 0.00 0.00 0.00 86 1011.5
20260508094833 69 0 1.0 7.0 0.00 0.00 0.00 86 1011.6
20260508094703 69 0 1.0 7.0 0.00 0.00 0.00 86 1011.6
20260508094604 69 0 1.0 7.0 0.00 0.00 0.00 86 1011.5
20260508094504 69 0 2.0 7.0 0.00 0.00 0.00 86 1011.4
20260508094404 69 0 2.0 7.0 0.00 0.00 0.00 86 1011.3
20260508094303 69 0 2.0 7.0 0.00 0.00 0.00 86 1011.1
20260508094203 69 0 2.0 7.0 0.00 0.00 0.00 86 1011.0
20260508094103 69 0 2.0 7.0 0.00 0.00 0.00 86 1010.9
20260508094003 69 0 2.0 7.0 0.00 0.00 0.00 86 1010.7
20260508093903 69 0.0 0.0 0.00 0.00 0.00 82 1010.7
20260508093803 0 0.0 0.0 0.00 0.00 0.00 1010.6
20260508093704 0 0.0 0.0 0.00 0.00 0.00 1010.6
20260508093603 0 0.0 0.0 0.00 0.00 0.00 1010.8
20260508093505 0 0.0 0.0 0.00 0.00 0.00 1010.9
20260508093403 0 0.0 0.0 0.00 0.00 0.00 1010.9
20260508093303 0 0.0 0.0 0.00 0.00 0.00 1011.0
20260508093203 0 0.0 0.0 0.00 0.00 0.00 1010.9
20260508093103 0 0.0 0.0 0.00 0.00 0.00 1011.0
20260508093004 0 0.0 0.0 0.00 0.00 0.00 1011.0
20260508092903 0 0.0 0.0 0.00 0.00 0.00 1011.0
20260508092803 0 0.0 0.0 0.00 0.00 0.00 1011.0
20260508092704 0 0.0 0.0 0.00 0.00 0.00 1011.0
20260508092604 0 0.0 0.0 0.00 0.00 0.00 1011.1
20260508092503 0 0.0 0.0 0.00 0.00 0.00 1011.1
20260508092403 0 0.0 0.0 0.00 0.00 0.00 1011.1
20260508092312 0 0.0 0.0 0.00 0.00 0.00 1011.1
20260508092203 0 0.0 0.0 0.00 0.00 0.00 1011.1
20260508092103 0 0.0 0.0 0.00 0.00 0.00 1011.1
20260508092004 0 0.0 0.0 0.00 0.00 0.00 1011.1
20260508091904 0 0.0 0.0 0.00 0.00 0.00 1011.2
20260508091803 0 0.0 0.0 0.00 0.00 0.00 1011.2
20260508091704 0 0.0 0.0 0.00 0.00 0.00 1011.1
20260508091603 0 0.0 0.0 0.00 0.00 0.00 1011.2
20260508091504 0 0.0 0.0 0.00 0.00 0.00 1011.1
20260508091403 0 0.0 0.0 0.00 0.00 0.00 1011.2
20260508091303 0 0.0 0.0 0.00 0.00 0.00 1011.1
20260508091203 0 0.0 0.0 0.00 0.00 0.00 1011.0
20260508091104 0 0.0 0.0 0.00 0.00 0.00 1011.0
20260508091004 0 0.0 0.0 0.00 0.00 0.00 1011.1
20260508090904 0 0.0 0.0 0.00 0.00 0.00 1011.0
20260508090803 0 0.0 0.0 0.00 0.00 0.00 1011.1
20260508090704 0 0.0 0.0 0.00 0.00 0.00 1011.1
20260508090604 70 0 3.0 3.0 0.00 0.00 0.00 82 1011.2
20260508090503 70 0 3.0 5.0 0.00 0.00 0.00 82 1011.2
20260508090403 70 0 3.0 5.0 0.00 0.00 0.00 82 1011.2
20260508090303 70 0 3.0 5.0 0.00 0.00 0.00 82 1011.3
20260508090203 70 0 3.0 5.0 0.00 0.00 0.00 82 1011.3
20260508090103 70 0 3.0 5.0 0.00 0.00 0.00 82 1011.4
20260508090003 70 0 3.0 5.0 0.00 0.00 0.00 82 1011.5
20260508085904 70 0 3.0 5.0 0.00 0.00 0.00 82 1011.5
20260508085803 70 0 3.0 5.0 0.00 0.00 0.00 82 1011.5
20260508085704 70 0 3.0 5.0 0.00 0.00 0.00 82 1011.5
20260508085603 70 0 3.0 5.0 0.00 0.00 0.00 82 1011.6
20260508085503 70 0 2.0 5.0 0.00 0.00 0.00 82 1011.5
20260508085402 70 0 2.0 4.0 0.00 0.00 0.00 82 1011.6
20260508085302 70 0 3.0 4.0 0.00 0.00 0.00 82 1011.5
20260508085203 70 0 2.0 4.0 0.00 0.00 0.00 82 1011.6
20260508085102 70 0 1.0 3.0 0.00 0.00 0.00 82 1011.6
20260508085005 70 0 1.0 2.0 0.00 0.00 0.00 81 1011.6
20260508084903 70 0 3.0 5.0 0.00 0.00 0.00 81 1011.6
20260508084803 70 0 3.0 5.0 0.00 0.00 0.00 81 1011.6
20260508084703 70 0 3.0 5.0 0.00 0.00 0.00 81 1011.5
20260508084604 70 0 3.0 5.0 0.00 0.00 0.00 81 1011.5
20260508084505 70 0 3.0 5.0 0.00 0.00 0.00 81 1011.6
20260508084404 70 0 3.0 5.0 0.00 0.00 0.00 81 1011.6
20260508084305 70 0 3.0 5.0 0.00 0.00 0.00 81 1011.6
20260508084204 70 0 3.0 6.0 0.00 0.00 0.00 81 1011.6
20260508084104 70 0 3.0 6.0 0.00 0.00 0.00 81 1011.5
20260508084004 70 0 2.0 6.0 0.00 0.00 0.00 81 1011.5
20260508083904 70 0 1.0 6.0 0.00 0.00 0.00 81 1011.5
20260508083804 70 0 2.0 6.0 0.00 0.00 0.00 81 1011.4
20260508083702 70 0 2.0 6.0 0.00 0.00 0.00 81 1011.4
20260508083602 70 0 2.0 6.0 0.00 0.00 0.00 81 1011.4
20260508083502 70 0 2.0 6.0 0.00 0.00 0.00 81 1011.4
20260508083403 70 0 2.0 6.0 0.00 0.00 0.00 81 1011.5
20260508083303 70 0 2.0 6.0 0.00 0.00 0.00 81 1011.4
20260508083203 70 0 1.0 2.0 0.00 0.00 0.00 81 1011.5
20260508083103 0 0.0 0.0 0.00 0.00 0.00 1011.6
20260508083003 70 0 3.0 2.0 0.00 0.00 0.00 81 1011.5
20260508082903 70 0 3.0 5.0 0.00 0.00 0.00 81 1011.6
20260508082803 70 0 3.0 5.0 0.00 0.00 0.00 81 1011.6
20260508082703 70 0 3.0 5.0 0.00 0.00 0.00 81 1011.7
20260508082603 70 0 3.0 5.0 0.00 0.00 0.00 81 1011.6
20260508082504 70 0 3.0 5.0 0.00 0.00 0.00 81 1011.7
20260508082403 70 0 3.0 5.0 0.00 0.00 0.00 81 1011.7
20260508082306 70 0 3.0 5.0 0.00 0.00 0.00 81 1011.6
20260508082202 70 0 3.0 5.0 0.00 0.00 0.00 81 1011.6
20260508082033 70 0 3.0 5.0 0.00 0.00 0.00 81 1011.6
20260508081931 70 0 3.0 5.0 0.00 0.00 0.00 81 1011.5
20260508081831 70 0 1.0 2.0 0.00 0.00 0.00 81 1011.5
20260508081731 70 0 1.0 2.0 0.00 0.00 0.00 81 1011.4
20260508081631 70 0 1.0 2.0 0.00 0.00 0.00 79 1011.4
20260508081532 70 0 2.0 2.0 0.00 0.00 0.00 79 1011.5
20260508081431 70 0 2.0 2.0 0.00 0.00 0.00 79 1011.4
20260508081331 70 0 2.0 2.0 0.00 0.00 0.00 79 1011.4
20260508081231 70 0 2.0 2.0 0.00 0.00 0.00 79 1011.4
20260508081131 0 0.0 0.0 0.00 0.00 0.00 1011.5
20260508081032 0 0.0 0.0 0.00 0.00 0.00 1011.4
20260508080931 71 0 4.0 2.0 0.00 0.00 0.00 79 1011.4
20260508080832 71 0 4.0 6.0 0.00 0.00 0.00 79 1011.5
20260508080732 71 0 4.0 6.0 0.00 0.00 0.00 79 1011.4
20260508080631 71 0 4.0 6.0 0.00 0.00 0.00 79 1011.4
20260508080532 71 0 4.0 6.0 0.00 0.00 0.00 79 1011.3
20260508080432 71 0 4.0 6.0 0.00 0.00 0.00 79 1011.4
20260508080333 71 0 4.0 6.0 0.00 0.00 0.00 79 1011.4
20260508080233 71 0 4.0 6.0 0.00 0.00 0.00 79 1011.4
20260508080132 71 0 4.0 6.0 0.00 0.00 0.00 79 1011.5
20260508080025 71 0 4.0 6.0 0.00 0.00 0.00 79 1011.5
20260508075926 71 0 5.0 6.0 0.00 0.00 0.00 79 1011.5
20260508075825 71 0 0.0 0.0 0.00 0.00 0.00 79 1011.5
20260508075726 71 0 0.0 0.0 0.00 0.00 0.00 79 1011.5
20260508075624 71 0 0.0 0.0 0.00 0.00 0.00 79 1011.5
20260508075523 71 0 0.0 4.0 0.00 0.00 0.00 79 1011.6
20260508075424 71 0 0.0 4.0 0.00 0.00 0.00 79 1011.5
20260508075323 71 0 0.0 4.0 0.00 0.00 0.00 79 1011.5
20260508075223 71 0 0.0 4.0 0.00 0.00 0.00 79 1011.6
20260508075123 71 0 0.0 4.0 0.00 0.00 0.00 79 1011.6
20260508075023 71 0 0.0 4.0 0.00 0.00 0.00 79 1011.6
20260508074923 71 0 2.0 4.0 0.00 0.00 0.00 79 1011.6
20260508074823 71 0 2.0 4.0 0.00 0.00 0.00 79 1011.6
20260508074724 71 0 2.0 4.0 0.00 0.00 0.00 79 1011.6
20260508074623 71 0 2.0 4.0 0.00 0.00 0.00 79 1011.7
20260508074523 71 0 2.0 4.0 0.00 0.00 0.00 79 1011.8
20260508074422 71 0 1.0 3.0 0.00 0.00 0.00 79 1011.8
20260508074323 0 0.0 0.0 0.00 0.00 0.00 1011.8
20260508074223 0 0.0 0.0 0.00 0.00 0.00 1011.8
20260508074122 0 0.0 0.0 0.00 0.00 0.00 1011.8
20260508074022 0 0.0 0.0 0.00 0.00 0.00 1011.9
20260508073922 0 0.0 0.0 0.00 0.00 0.00 1011.9
20260508073822 0 0.0 0.0 0.00 0.00 0.00 1011.7
20260508073721 0 0.0 0.0 0.00 0.00 0.00 1011.8
20260508073620 0 0.0 0.0 0.00 0.00 0.00 1011.8
20260508073519 0 0.0 0.0 0.00 0.00 0.00 1011.8
20260508073420 0 0.0 0.0 0.00 0.00 0.00 1011.9
20260508073320 0 0.0 0.0 0.00 0.00 0.00 1011.8
20260508073219 0 0.0 0.0 0.00 0.00 0.00 1011.9
20260508073119 0 0.0 0.0 0.00 0.00 0.00 1011.8
20260508073018 0 0.0 0.0 0.00 0.00 0.00 1011.8
20260508072919 0 0.0 0.0 0.00 0.00 0.00 1011.8
20260508072818 0 0.0 0.0 0.00 0.00 0.00 1011.7
20260508072719 0 0.0 0.0 0.00 0.00 0.00 1011.7
20260508072616 0 0.0 0.0 0.00 0.00 0.00 1011.7
20260508072516 0 0.0 0.0 0.00 0.00 0.00 1011.6
20260508072416 0 0.0 0.0 0.00 0.00 0.00 1011.6
20260508072316 0 0.0 0.0 0.00 0.00 0.00 1011.5
20260508072217 0 0.0 0.0 0.00 0.00 0.00 1011.5
20260508072115 0 0.0 0.0 0.00 0.00 0.00 1011.6
20260508072014 0 0.0 0.0 0.00 0.00 0.00 1011.6
20260508071914 0 0.0 0.0 0.00 0.00 0.00 1011.6
20260508071815 0 0.0 0.0 0.00 0.00 0.00 1011.5
20260508071714 0 0.0 0.0 0.00 0.00 0.00 1011.5
20260508071613 0 0.0 0.0 0.00 0.00 0.00 1011.5
20260508071513 0 0.0 0.0 0.00 0.00 0.00 1011.5
20260508071412 0 0.0 0.0 0.00 0.00 0.00 1011.5
20260508071313 0 0.0 0.0 0.00 0.00 0.00 1011.5
20260508071212 0 0.0 0.0 0.00 0.00 0.00 1011.6
20260508071111 0 0.0 0.0 0.00 0.00 0.00 1011.6
20260508071011 0 0.0 0.0 0.00 0.00 0.00 1011.7
20260508070911 71 0 0.0 0.0 0.00 0.00 0.00 79 1011.7
20260508070811 71 0 0.0 0.0 0.00 0.00 0.00 79 1011.8
20260508070711 71 0 0.0 0.0 0.00 0.00 0.00 79 1011.7
20260508070609 71 0 0.0 0.0 0.00 0.00 0.00 79 1011.7
20260508070510 71 0 0.0 0.0 0.00 0.00 0.00 79 1011.7
20260508070409 71 0 0.0 0.0 0.00 0.00 0.00 79 1011.7
20260508070310 71 0 0.0 0.0 0.00 0.00 0.00 79 1011.8
20260508070209 71 0 0.0 0.0 0.00 0.00 0.00 79 1011.8
20260508070105 71 0 0.0 0.0 0.00 0.00 0.00 79 1011.8
20260508070004 71 0 0.0 0.0 0.00 0.00 0.00 79 1011.8
20260508065904 71 0 0.0 1.0 0.00 0.00 0.00 79 1011.7
20260508065803 71 0 0.0 1.0 0.00 0.00 0.00 79 1011.7
20260508065704 71 0 0.0 1.0 0.00 0.00 0.00 79 1011.7
20260508065603 71 0 0.0 1.0 0.00 0.00 0.00 79 1011.7
20260508065503 71 0 0.0 1.0 0.00 0.00 0.00 79 1011.7
20260508065403 71 0 0.0 1.0 0.00 0.00 0.00 79 1011.7
20260508065306 71 0 0.0 1.0 0.00 0.00 0.00 79 1011.6
20260508065203 71 0 0.0 1.0 0.00 0.00 0.00 79 1011.6
20260508065103 71 0 0.0 1.0 0.00 0.00 0.00 79 1011.6
20260508065003 71 0 0.0 1.0 0.00 0.00 0.00 79 1011.6
20260508064902 71 0 0.0 0.0 0.00 0.00 0.00 79 1011.7
20260508064803 71 0 0.0 0.0 0.00 0.00 0.00 79 1011.7
20260508064703 0 0 0.0 0.0 0.00 0.00 0.00 1011.8
20260508064603 0 0.0 0.0 0.00 0.00 0.00 1011.7
20260508064503 0 0.0 0.0 0.00 0.00 0.00 1011.8
20260508064403 71 0 4.0 6.0 0.00 0.00 0.00 79 1011.8
20260508064302 71 0 4.0 6.0 0.00 0.00 0.00 79 1011.7
20260508064203 71 0 4.0 6.0 0.00 0.00 0.00 79 1011.7
20260508064102 71 0 4.0 6.0 0.00 0.00 0.00 79 1011.6
20260508064004 71 0 4.0 6.0 0.00 0.00 0.00 79 1011.7
20260508063904 71 0 4.0 6.0 0.00 0.00 0.00 79 1011.7
20260508063803 71 0 4.0 6.0 0.00 0.00 0.00 79 1011.7
20260508063704 71 0 4.0 6.0 0.00 0.00 0.00 79 1011.6
20260508063603 71 0 4.0 6.0 0.00 0.00 0.00 79 1011.7
20260508063505 71 0 4.0 6.0 0.00 0.00 0.00 79 1011.6
20260508063403 71 0 4.0 5.0 0.00 0.00 0.00 79 1011.6
20260508063303 71 0 3.0 5.0 0.00 0.00 0.00 79 1011.6
20260508063203 71 0 3.0 5.0 0.00 0.00 0.00 79 1011.6
20260508063103 71 0 3.0 5.0 0.00 0.00 0.00 79 1011.7
20260508063003 71 0 2.0 4.0 0.00 0.00 0.00 78 1011.7
20260508062902 71 0 2.0 3.0 0.00 0.00 0.00 78 1011.8
20260508062803 71 0 1.0 1.0 0.00 0.00 0.00 78 1011.9
20260508062703 0 0.0 0.0 0.00 0.00 0.00 1011.9
20260508062604 0 0.0 0.0 0.00 0.00 0.00 1011.9
20260508062503 0 0.0 0.0 0.00 0.00 0.00 1011.9
20260508062404 0 0 3.0 4.0 0.00 0.00 0.00 1011.9
20260508062306 0 0 3.0 4.0 0.00 0.00 0.00 1011.9
20260508062203 0 0 3.0 4.0 0.00 0.00 0.00 1012.0
20260508062103 0 0 3.0 4.0 0.00 0.00 0.00 1011.9
20260508062001 0 0 3.0 4.0 0.00 0.00 0.00 1011.9
20260508061901 0 0 3.0 4.0 0.00 0.00 0.00 1011.9
20260508061801 0 0 3.0 4.0 0.00 0.00 0.00 1011.9
20260508061702 0 0 3.0 4.0 0.00 0.00 0.00 1011.9
20260508061601 0 0 3.0 4.0 0.00 0.00 0.00 1011.9
20260508061500 0 0 3.0 4.0 0.00 0.00 0.00 1011.9
20260508061401 0 0.0 0.0 0.00 0.00 0.00 1011.9
20260508061302 0 0.0 0.0 0.00 0.00 0.00 1012.0
20260508061200 0 0.0 0.0 0.00 0.00 0.00 1012.0
20260508061059 0 0.0 0.0 0.00 0.00 0.00 1012.0
20260508061001 0 0.0 0.0 0.00 0.00 0.00 1012.0
20260508060859 0 0.0 0.0 0.00 0.00 0.00 1012.0
20260508060801 0 0.0 0.0 0.00 0.00 0.00 1012.1
20260508060657 0 0.0 0.0 0.00 0.00 0.00 1012.1
20260508060557 0 0.0 0.0 0.00 0.00 0.00 1012.0
20260508060458 0 0.0 0.0 0.00 0.00 0.00 1012.1
20260508060357 0 0.0 0.0 0.00 0.00 0.00 1012.0
20260508060258 0 0.0 0.0 0.00 0.00 0.00 1012.2
20260508060156 0 0.0 0.0 0.00 0.00 0.00 1012.2
20260508060041 0 0.0 0.0 0.00 0.00 0.00 1012.2
20260508055933 0 0.0 0.0 0.00 0.00 0.00 1012.2
20260508055833 0 0.0 0.0 0.00 0.00 0.00 1012.1
20260508055732 0 0.0 0.0 0.00 0.00 0.00 1012.0
20260508055604 0 0.0 0.0 0.00 0.00 0.00 1012.0
20260508055504 0 0.0 0.0 0.00 0.00 0.00 1012.0
20260508055404 0 0.0 0.0 0.00 0.00 0.00 1012.0
20260508055306 0 0.0 0.0 0.00 0.00 0.00 1012.0
20260508055203 0 0.0 0.0 0.00 0.00 0.00 1011.9
20260508055103 0 0.0 0.0 0.00 0.00 0.00 1012.1
20260508055004 0 0.0 0.0 0.00 0.00 0.00 1011.9
20260508054903 0 0.0 0.0 0.00 0.00 0.00 1011.9
20260508054803 0 0.0 0.0 0.00 0.00 0.00 1011.9
20260508054704 0 0.0 0.0 0.00 0.00 0.00 1011.8
20260508054603 0 0.0 0.0 0.00 0.00 0.00 1011.8
20260508054504 0 0.0 0.0 0.00 0.00 0.00 1011.9
20260508054403 0 0.0 0.0 0.00 0.00 0.00 1011.8
20260508054304 0 0.0 0.0 0.00 0.00 0.00 1011.8
20260508054204 0 0.0 0.0 0.00 0.00 0.00 1011.9
20260508054104 0 0.0 0.0 0.00 0.00 0.00 1011.9
20260508054004 0 0.0 0.0 0.00 0.00 0.00 1012.0
20260508053904 0 0.0 0.0 0.00 0.00 0.00 1012.1
20260508053804 0 0.0 0.0 0.00 0.00 0.00 1012.0
20260508053704 0 0.0 0.0 0.00 0.00 0.00 1011.9
20260508053603 0 0.0 0.0 0.00 0.00 0.00 1012.0
20260508053503 0 0.0 0.0 0.00 0.00 0.00 1011.8
20260508053403 0 0.0 0.0 0.00 0.00 0.00 1011.9
20260508053303 0 0.0 0.0 0.00 0.00 0.00 1011.8
20260508053203 0 0.0 0.0 0.00 0.00 0.00 1011.8
20260508053103 0 0.0 0.0 0.00 0.00 0.00 1011.8
20260508053004 0 0.0 0.0 0.00 0.00 0.00 1011.8
20260508052845 0 0.0 0.0 0.00 0.00 0.00 1011.8
20260508052745 0 0.0 0.0 0.00 0.00 0.00 1011.8
20260508052643 0 0.0 0.0 0.00 0.00 0.00 1011.8
20260508052543 72 0 2.0 2.0 0.00 0.00 0.00 77 1011.9
20260508052443 72 0 2.0 4.0 0.00 0.00 0.00 77 1012.0
20260508052343 72 0 2.0 4.0 0.00 0.00 0.00 77 1011.8
20260508052243 72 0 2.0 4.0 0.00 0.00 0.00 77 1011.8
20260508052141 72 0 2.0 4.0 0.00 0.00 0.00 77 1011.8
20260508052042 72 0 2.0 4.0 0.00 0.00 0.00 77 1011.8
20260508051941 72 0 2.0 4.0 0.00 0.00 0.00 77 1011.8
20260508051842 72 0 2.0 4.0 0.00 0.00 0.00 77 1011.8
20260508051741 72 0 2.0 4.0 0.00 0.00 0.00 77 1011.8
20260508051642 72 0 2.0 4.0 0.00 0.00 0.00 77 1011.8
20260508051541 72 0 4.0 4.0 0.00 0.00 0.00 77 1011.8
20260508051441 72 0 0.0 2.0 0.00 0.00 0.00 77 1011.7
20260508051342 72 0 0.0 2.0 0.00 0.00 0.00 77 1011.7
20260508051241 72 0 0.0 2.0 0.00 0.00 0.00 77 1011.7
20260508051142 72 0 0.0 2.0 0.00 0.00 0.00 77 1011.7
20260508051041 72 0 0.0 2.0 0.00 0.00 0.00 77 1011.7
20260508050941 72 0 0.0 0.0 0.00 0.00 0.00 76 1011.8
20260508050842 0 0.0 0.0 0.00 0.00 0.00 1011.8
20260508050741 0 0.0 0.0 0.00 0.00 0.00 1011.9
20260508050639 0 0.0 0.0 0.00 0.00 0.00 1011.8
20260508050539 0 0.0 0.0 0.00 0.00 0.00 1011.8
20260508050439 0 0.0 0.0 0.00 0.00 0.00 1011.8
20260508050339 0 0.0 0.0 0.00 0.00 0.00 1011.8
20260508050238 0 0.0 0.0 0.00 0.00 0.00 1011.8
20260508050138 0 0.0 0.0 0.00 0.00 0.00 1011.8
20260508050038 0 0.0 0.0 0.00 0.00 0.00 1011.7
20260508045937 0 0.0 0.0 0.00 0.00 0.00 1011.7
20260508045837 0 0.0 0.0 0.00 0.00 0.00 1011.6
20260508045737 0 0.0 0.0 0.00 0.00 0.00 1011.7
20260508045634 0 0.0 0.0 0.00 0.00 0.00 1011.8
20260508045534 0 0.0 0.0 0.00 0.00 0.00 1011.7
20260508045433 0 0.0 0.0 0.00 0.00 0.00 1011.7
20260508045334 0 0.0 0.0 0.00 0.00 0.00 1011.8
20260508045234 0 0.0 0.0 0.00 0.00 0.00 1011.9
20260508045132 0 0.0 0.0 0.00 0.00 0.00 1011.9
20260508045032 0 0.0 0.0 0.00 0.00 0.00 1011.9
20260508044932 0 0.0 0.0 0.00 0.00 0.00 1012.0
20260508044834 0 0.0 0.0 0.00 0.00 0.00 1012.0
20260508044732 0 0.0 0.0 0.00 0.00 0.00 1011.9
20260508044632 0 0.0 0.0 0.00 0.00 0.00 1011.9
20260508044531 0 0.0 0.0 0.00 0.00 0.00 1011.9
20260508044432 0 0.0 0.0 0.00 0.00 0.00 1011.9
20260508044332 0 0.0 0.0 0.00 0.00 0.00 1011.8
20260508044231 0 0.0 0.0 0.00 0.00 0.00 1011.9
20260508044130 0 0.0 0.0 0.00 0.00 0.00 1011.8
20260508044031 0 0.0 0.0 0.00 0.00 0.00 1011.8
20260508043929 0 0.0 0.0 0.00 0.00 0.00 1011.8
20260508043831 0 0.0 0.0 0.00 0.00 0.00 1011.8
20260508043730 0 0.0 0.0 0.00 0.00 0.00 1011.9
20260508043628 0 0.0 0.0 0.00 0.00 0.00 1011.9
20260508043528 0 0.0 0.0 0.00 0.00 0.00 1011.9
20260508043427 0 0.0 0.0 0.00 0.00 0.00 1012.0
20260508043328 0 0.0 0.0 0.00 0.00 0.00 1012.0
20260508043228 0 0.0 0.0 0.00 0.00 0.00 1011.9
20260508043126 0 0.0 0.0 0.00 0.00 0.00 1011.9
20260508043027 0 0.0 0.0 0.00 0.00 0.00 1012.1
20260508042926 0 0.0 0.0 0.00 0.00 0.00 1012.1
20260508042826 0 0.0 0.0 0.00 0.00 0.00 1012.0
20260508042727 0 0.0 0.0 0.00 0.00 0.00 1012.0
20260508042624 0 0.0 0.0 0.00 0.00 0.00 1012.1
20260508042525 0 0.0 0.0 0.00 0.00 0.00 1012.0
20260508042425 0 0.0 0.0 0.00 0.00 0.00 1012.1
20260508042307 0 0.0 0.0 0.00 0.00 0.00 1012.2
20260508042204 0 0.0 0.0 0.00 0.00 0.00 1012.0
20260508042103 0 0.0 0.0 0.00 0.00 0.00 1012.1
20260508042002 74 0 4.0 6.0 0.00 0.00 0.00 76 1012.1
20260508041903 74 0 4.0 6.0 0.00 0.00 0.00 76 1012.1
20260508041803 74 0 4.0 9.0 0.00 0.00 0.00 76 1012.1
20260508041703 74 0 4.0 9.0 0.00 0.00 0.00 76 1012.0
20260508041603 74 0 4.0 9.0 0.00 0.00 0.00 76 1012.1
20260508041504 74 0 4.0 9.0 0.00 0.00 0.00 76 1012.1
20260508041403 74 0 4.0 9.0 0.00 0.00 0.00 76 1012.1
20260508041304 74 0 4.0 9.0 0.00 0.00 0.00 76 1012.0
20260508041203 74 0 4.0 9.0 0.00 0.00 0.00 76 1011.9
20260508041104 74 0 4.0 9.0 0.00 0.00 0.00 76 1011.9
20260508041004 74 0 5.0 9.0 0.00 0.00 0.00 76 1011.8
20260508040903 74 0 5.0 9.0 0.00 0.00 0.00 76 1011.9
20260508040804 74 0 4.0 9.0 0.00 0.00 0.00 76 1011.8
20260508040702 74 0 5.0 9.0 0.00 0.00 0.00 76 1011.7
20260508040603 74 0 5.0 9.0 0.00 0.00 0.00 76 1011.7
20260508040503 74 0 4.0 7.0 0.00 0.00 0.00 70 1011.7
20260508040403 0 0 3.0 4.0 0.00 0.00 0.00 1011.6
20260508040303 0 0.0 0.0 0.00 0.00 0.00 1011.6
20260508040203 0 0.0 0.0 0.00 0.00 0.00 1011.5
20260508040002 0 0.0 0.0 0.00 0.00 0.00 1011.5
20260508035904 0 0.0 0.0 0.00 0.00 0.00 1011.5
20260508035803 0 0.0 0.0 0.00 0.00 0.00 1011.6
20260508035703 0 0.0 0.0 0.00 0.00 0.00 1011.6
20260508035603 0 0.0 0.0 0.00 0.00 0.00 1011.7
20260508035504 0 0.0 0.0 0.00 0.00 0.00 1011.7
20260508035403 0 0.0 0.0 0.00 0.00 0.00 1011.7
20260508035306 0 0.0 0.0 0.00 0.00 0.00 1011.8
20260508035204 0 0.0 0.0 0.00 0.00 0.00 1011.7
20260508035104 0 0.0 0.0 0.00 0.00 0.00 1011.7
20260508035004 74 0 2.0 2.0 0.00 0.00 0.00 70 1011.7
20260508034902 74 0 2.0 4.0 0.00 0.00 0.00 70 1011.7
20260508034803 74 0 2.0 4.0 0.00 0.00 0.00 70 1011.8
20260508034703 74 0 2.0 4.0 0.00 0.00 0.00 70 1011.8
20260508034603 74 0 2.0 4.0 0.00 0.00 0.00 70 1011.8
20260508034503 74 0 2.0 4.0 0.00 0.00 0.00 70 1012.0
20260508034403 74 0 2.0 4.0 0.00 0.00 0.00 70 1012.0
20260508034303 74 0 2.0 4.0 0.00 0.00 0.00 70 1012.1
20260508034203 74 0 2.0 4.0 0.00 0.00 0.00 70 1012.2
20260508034103 74 0 2.0 4.0 0.00 0.00 0.00 70 1012.2
20260508034005 0 0 4.0 4.0 0.00 0.00 0.00 1012.3
20260508033903 0 0.0 0.0 0.00 0.00 0.00 1012.3
20260508033803 0 0.0 0.0 0.00 0.00 0.00 1012.4
20260508033703 0 0.0 0.0 0.00 0.00 0.00 1012.5
20260508033603 0 0.0 0.0 0.00 0.00 0.00 1012.5
20260508033503 0 0.0 0.0 0.00 0.00 0.00 1012.5
20260508033403 0 0.0 0.0 0.00 0.00 0.00 1012.5
20260508033303 0 0.0 0.0 0.00 0.00 0.00 1012.4
20260508033202 0 0.0 0.0 0.00 0.00 0.00 1012.3
20260508033103 0 0.0 0.0 0.00 0.00 0.00 1012.3
20260508033003 0 0.0 0.0 0.00 0.00 0.00 1012.4
20260508032903 0 0.0 0.0 0.00 0.00 0.00 1012.5
20260508032803 0 0.0 0.0 0.00 0.00 0.00 1012.5
20260508032703 0 0.0 0.0 0.00 0.00 0.00 1012.7
20260508032603 0 0.0 0.0 0.00 0.00 0.00 1012.7
20260508032504 0 0.0 0.0 0.00 0.00 0.00 1012.8
20260508032403 0 0.0 0.0 0.00 0.00 0.00 1012.7
20260508032306 0 0.0 0.0 0.00 0.00 0.00 1012.7
20260508032203 0 0.0 0.0 0.00 0.00 0.00 1012.7
20260508032104 0 0.0 0.0 0.00 0.00 0.00 1012.7
20260508032003 0 0.0 0.0 0.00 0.00 0.00 1012.7
20260508031904 0 0.0 0.0 0.00 0.00 0.00 1012.7
20260508031803 0 0.0 0.0 0.00 0.00 0.00 1012.6
20260508031703 0 0.0 0.0 0.00 0.00 0.00 1012.6
20260508031604 0 0.0 0.0 0.00 0.00 0.00 1012.7
20260508031504 0 0.0 0.0 0.00 0.00 0.00 1012.7
20260508031403 0 0.0 0.0 0.00 0.00 0.00 1012.7
20260508031304 0 0.0 0.0 0.00 0.00 0.00 1012.6
20260508031202 0 0.0 0.0 0.00 0.00 0.00 1012.7
20260508031104 0 0.0 0.0 0.00 0.00 0.00 1012.8
20260508031002 0 0.0 0.0 0.00 0.00 0.00 1012.7
20260508030904 0 0.0 0.0 0.00 0.00 0.00 1012.7
20260508030802 0 0.0 0.0 0.00 0.00 0.00 1012.7
20260508030700 0 0.0 0.0 0.00 0.00 0.00 1012.8
20260508030601 0 0.0 0.0 0.00 0.00 0.00 1012.7
20260508030500 0 0.0 0.0 0.00 0.00 0.00 1012.7
20260508030400 0 0.0 0.0 0.00 0.00 0.00 1012.7
20260508030301 0 0.0 0.0 0.00 0.00 0.00 1012.7
20260508030159 0 0.0 0.0 0.00 0.00 0.00 1012.6
20260508030033 0 0.0 0.0 0.00 0.00 0.00 1012.6
20260508025932 0 0.0 0.0 0.00 0.00 0.00 1012.5
20260508025833 0 0.0 0.0 0.00 0.00 0.00 1012.5
20260508025732 0 0.0 0.0 0.00 0.00 0.00 1012.4
20260508025631 0 0.0 0.0 0.00 0.00 0.00 1012.6
20260508025532 0 0.0 0.0 0.00 0.00 0.00 1012.6
20260508025432 0 0.0 0.0 0.00 0.00 0.00 1012.6
20260508025332 0 0.0 0.0 0.00 0.00 0.00 1012.6
20260508025232 0 0.0 0.0 0.00 0.00 0.00 1012.6
20260508025133 0 0.0 0.0 0.00 0.00 0.00 1012.7
20260508025033 0 0.0 0.0 0.00 0.00 0.00 1012.6
20260508024932 0 0.0 0.0 0.00 0.00 0.00 1012.6
20260508024831 0 0.0 0.0 0.00 0.00 0.00 1012.6
20260508024732 0 0.0 0.0 0.00 0.00 0.00 1012.5
20260508024632 0 0.0 0.0 0.00 0.00 0.00 1012.5
20260508024532 0 0.0 0.0 0.00 0.00 0.00 1012.3
20260508024433 0 0.0 0.0 0.00 0.00 0.00 1012.4
20260508024304 0 0.0 0.0 0.00 0.00 0.00 1012.3
20260508024204 0 0.0 0.0 0.00 0.00 0.00 1012.2
20260508024103 0 0.0 0.0 0.00 0.00 0.00 1012.4
20260508024005 0 0.0 0.0 0.00 0.00 0.00 1012.3
20260508023903 0 0.0 0.0 0.00 0.00 0.00 1012.2
20260508023804 0 0.0 0.0 0.00 0.00 0.00 1012.2
20260508023702 0 0.0 0.0 0.00 0.00 0.00 1012.1
20260508023603 76 0 3.0 3.0 0.00 0.00 0.00 70 1012.1
20260508023503 76 0 3.0 5.0 0.00 0.00 0.00 70 1012.1
20260508023403 76 0 3.0 5.0 0.00 0.00 0.00 70 1012.1
20260508023302 76 0 3.0 5.0 0.00 0.00 0.00 70 1012.2
20260508023203 76 0 3.0 5.0 0.00 0.00 0.00 70 1012.2
20260508023104 76 0 3.0 5.0 0.00 0.00 0.00 70 1012.3
20260508023004 76 0 3.0 5.0 0.00 0.00 0.00 70 1012.3
20260508022904 76 0 3.0 5.0 0.00 0.00 0.00 70 1012.3
20260508022803 76 0 3.0 5.0 0.00 0.00 0.00 70 1012.3
20260508022704 76 0 3.0 5.0 0.00 0.00 0.00 70 1012.4
20260508022602 76 0 3.0 5.0 0.00 0.00 0.00 70 1012.5
20260508022504 76 0 2.0 4.0 0.00 0.00 0.00 70 1012.4
20260508022403 76 0 2.0 4.0 0.00 0.00 0.00 70 1012.4
20260508022306 76 0 2.0 4.0 0.00 0.00 0.00 70 1012.4
20260508022203 76 0 2.0 4.0 0.00 0.00 0.00 70 1012.5
20260508022102 76 0 2.0 4.0 0.00 0.00 0.00 72 1012.4
20260508022005 76 0 3.0 4.0 0.00 0.00 0.00 72 1012.3
20260508021902 0 0.0 0.0 0.00 0.00 0.00 1012.3
20260508021804 0 0.0 0.0 0.00 0.00 0.00 1012.3
20260508021703 0 0.0 0.0 0.00 0.00 0.00 1012.3
20260508021603 0 0.0 0.0 0.00 0.00 0.00 1012.3
20260508021502 0 0.0 0.0 0.00 0.00 0.00 1012.4
20260508021403 0 0.0 0.0 0.00 0.00 0.00 1012.4
20260508021303 0 0.0 0.0 0.00 0.00 0.00 1012.4
20260508021203 0 0.0 0.0 0.00 0.00 0.00 1012.4
20260508021104 0 0.0 0.0 0.00 0.00 0.00 1012.4
20260508021003 0 0.0 0.0 0.00 0.00 0.00 1012.4
20260508020903 0 0.0 0.0 0.00 0.00 0.00 1012.4
20260508020804 0 0.0 0.0 0.00 0.00 0.00 1012.4
20260508020704 0 0.0 0.0 0.00 0.00 0.00 1012.3
20260508020603 0 0.0 0.0 0.00 0.00 0.00 1012.4
20260508020505 0 0.0 0.0 0.00 0.00 0.00 1012.3
20260508020403 0 0.0 0.0 0.00 0.00 0.00 1012.3
20260508020304 0 0.0 0.0 0.00 0.00 0.00 1012.3
20260508020203 0 0.0 0.0 0.00 0.00 0.00 1012.2
20260508020003 0 0.0 0.0 0.00 0.00 0.00 1012.2
20260508015904 0 0.0 0.0 0.00 0.00 0.00 1012.1
20260508015803 0 0.0 0.0 0.00 0.00 0.00 1012.2
20260508015703 0 0.0 0.0 0.00 0.00 0.00 1012.2
20260508015603 0 0.0 0.0 0.00 0.00 0.00 1012.1
20260508015504 0 0.0 0.0 0.00 0.00 0.00 1012.2
20260508015403 0 0.0 0.0 0.00 0.00 0.00 1012.1
20260508015239 0 0.0 0.0 0.00 0.00 0.00 1012.2
20260508015136 0 0.0 0.0 0.00 0.00 0.00 1012.2
20260508015038 0 0.0 0.0 0.00 0.00 0.00 1012.2
20260508014937 0 0.0 0.0 0.00 0.00 0.00 1012.2
20260508014831 0 0.0 0.0 0.00 0.00 0.00 1012.2
20260508014732 0 0.0 0.0 0.00 0.00 0.00 1012.1
20260508014632 0 0.0 0.0 0.00 0.00 0.00 1012.2
20260508014531 0 0.0 0.0 0.00 0.00 0.00 1012.2
20260508014432 0 0.0 0.0 0.00 0.00 0.00 1012.2
20260508014332 0 0.0 0.0 0.00 0.00 0.00 1012.2
20260508014231 0 0.0 0.0 0.00 0.00 0.00 1012.1
20260508014132 0 0.0 0.0 0.00 0.00 0.00 1012.1
20260508014032 0 0.0 0.0 0.00 0.00 0.00 1012.1
20260508013931 0 0.0 0.0 0.00 0.00 0.00 1012.1
20260508013832 0 0.0 0.0 0.00 0.00 0.00 1012.1
20260508013733 0 0.0 0.0 0.00 0.00 0.00 1012.0
20260508013631 0 0.0 0.0 0.00 0.00 0.00 1012.0
20260508013531 0 0.0 0.0 0.00 0.00 0.00 1012.1
20260508013431 0 0.0 0.0 0.00 0.00 0.00 1012.1
20260508013331 0 0.0 0.0 0.00 0.00 0.00 1012.1
20260508013231 0 0.0 0.0 0.00 0.00 0.00 1012.1
20260508013103 76 0 3.0 4.0 0.00 0.00 0.00 72 1012.1
20260508013004 76 0 3.0 4.0 0.00 0.00 0.00 72 1012.2
20260508012903 76 0 3.0 4.0 0.00 0.00 0.00 72 1012.2
20260508012803 76 0 3.0 4.0 0.00 0.00 0.00 72 1012.1
20260508012703 76 0 3.0 4.0 0.00 0.00 0.00 72 1012.1
20260508012603 76 0 3.0 4.0 0.00 0.00 0.00 72 1012.0
20260508012504 76 0 3.0 4.0 0.00 0.00 0.00 72 1012.1
20260508012403 76 0 3.0 4.0 0.00 0.00 0.00 72 1012.1
20260508012307 76 0 3.0 4.0 0.00 0.00 0.00 72 1012.0
20260508012204 76 0 3.0 4.0 0.00 0.00 0.00 72 1012.1
20260508012047 76 0 3.0 4.0 0.00 0.00 0.00 73 1012.1
20260508011947 76 0 1.0 3.0 0.00 0.00 0.00 73 1012.0
20260508011846 76 0 1.0 3.0 0.00 0.00 0.00 73 1012.0
20260508011741 76 0 2.0 3.0 0.00 0.00 0.00 73 1012.0
20260508011638 76 0 1.0 3.0 0.00 0.00 0.00 73 1012.1
20260508011535 76 0 1.0 3.0 0.00 0.00 0.00 73 1012.2
20260508011434 76 0 2.0 3.0 0.00 0.00 0.00 73 1012.2
20260508011333 0 0.0 0.0 0.00 0.00 0.00 1012.3
20260508011231 0 0.0 0.0 0.00 0.00 0.00 1012.3
20260508011132 0 0.0 0.0 0.00 0.00 0.00 1012.3
20260508011032 0 0.0 0.0 0.00 0.00 0.00 1012.3
20260508010932 0 0.0 0.0 0.00 0.00 0.00 1012.3
20260508010832 0 0.0 0.0 0.00 0.00 0.00 1012.4
20260508010732 0 0.0 0.0 0.00 0.00 0.00 1012.4
20260508010632 0 0.0 0.0 0.00 0.00 0.00 1012.3
20260508010532 0 0.0 0.0 0.00 0.00 0.00 1012.4
20260508010433 0 0.0 0.0 0.00 0.00 0.00 1012.4
20260508010333 0 0.0 0.0 0.00 0.00 0.00 1012.4
20260508010232 0 0.0 0.0 0.00 0.00 0.00 1012.4
20260508010131 0 0.0 0.0 0.00 0.00 0.00 1012.4
20260508010033 0 0.0 0.0 0.00 0.00 0.00 1012.4
20260508005932 77 0 2.0 5.0 0.00 0.00 0.00 73 1012.4
20260508005832 77 0 2.0 5.0 0.00 0.00 0.00 73 1012.4
20260508005722 77 0 2.0 5.0 0.00 0.00 0.00 73 1012.5
20260508005620 77 0 2.0 5.0 0.00 0.00 0.00 73 1012.4
20260508005520 77 0 2.0 5.0 0.00 0.00 0.00 73 1012.4
20260508005419 77 0 2.0 5.0 0.00 0.00 0.00 73 1012.4
20260508005320 77 0 2.0 5.0 0.00 0.00 0.00 73 1012.4
20260508005220 77 0 2.0 5.0 0.00 0.00 0.00 73 1012.3
20260508005119 77 0 2.0 5.0 0.00 0.00 0.00 73 1012.2
20260508005019 77 0 2.0 5.0 0.00 0.00 0.00 73 1012.2
20260508004918 77 0 2.0 5.0 0.00 0.00 0.00 73 1012.1
20260508004818 77 0 1.0 5.0 0.00 0.00 0.00 73 1012.1
20260508004720 77 0 1.0 6.0 0.00 0.00 0.00 73 1012.0
20260508004618 77 0 1.0 6.0 0.00 0.00 0.00 73 1012.0
20260508004520 77 0 2.0 6.0 0.00 0.00 0.00 73 1012.0
20260508004418 77 0 3.0 6.0 0.00 0.00 0.00 72 1012.0
20260508004318 77 0 3.0 6.0 0.00 0.00 0.00 72 1011.9
20260508004219 77 0 4.0 6.0 0.00 0.00 0.00 72 1011.9
20260508004119 77 0 4.0 6.0 0.00 0.00 0.00 72 1012.0
20260508004019 77 0 4.0 6.0 0.00 0.00 0.00 72 1012.0
20260508003919 77 0 4.0 6.0 0.00 0.00 0.00 72 1012.0
20260508003818 77 0 4.0 6.0 0.00 0.00 0.00 72 1012.1
20260508003719 77 0 2.0 5.0 0.00 0.00 0.00 73 1012.1
20260508003619 77 0 3.0 5.0 0.00 0.00 0.00 73 1012.2
20260508003519 77 0 3.0 5.0 0.00 0.00 0.00 73 1012.1
20260508003420 77 0 3.0 5.0 0.00 0.00 0.00 73 1012.2
20260508003319 77 0 3.0 5.0 0.00 0.00 0.00 73 1012.1
20260508003219 77 0 3.0 5.0 0.00 0.00 0.00 73 1012.2
20260508003119 77 0 3.0 5.0 0.00 0.00 0.00 73 1012.2
20260508003019 77 0 2.0 2.0 0.00 0.00 0.00 73 1012.1
20260508002919 0 0.0 0.0 0.00 0.00 0.00 1012.2
20260508002817 0 0.0 0.0 0.00 0.00 0.00 1012.2
20260508002717 77 0 3.0 6.0 0.00 0.00 0.00 73 1012.2
20260508002617 77 0 3.0 6.0 0.00 0.00 0.00 73 1012.2
20260508002518 77 0 3.0 6.0 0.00 0.00 0.00 73 1012.1
20260508002418 77 0 3.0 6.0 0.00 0.00 0.00 73 1012.1
20260508002316 77 0 3.0 6.0 0.00 0.00 0.00 73 1012.1
20260508002216 77 0 3.0 6.0 0.00 0.00 0.00 73 1012.2
20260508002115 77 0 3.0 6.0 0.00 0.00 0.00 73 1012.2
20260508002015 77 0 3.0 6.0 0.00 0.00 0.00 73 1012.2
20260508001916 77 0 3.0 6.0 0.00 0.00 0.00 73 1012.2
20260508001805 77 0 3.0 6.0 0.00 0.00 0.00 73 1012.2
20260508001704 77 0 3.0 6.0 0.00 0.00 0.00 73 1012.1
20260508001604 77 0 3.0 6.0 0.00 0.00 0.00 73 1012.1
20260508001504 77 0 3.0 6.0 0.00 0.00 0.00 73 1012.1
20260508001404 77 0 1.0 3.0 0.00 0.00 0.00 73 1012.0
20260508001304 77 0 1.0 3.0 0.00 0.00 0.00 73 1012.1
20260508001203 77 0 2.0 3.0 0.00 0.00 0.00 73 1012.1
20260508001103 77 0 3.0 3.0 0.00 0.00 0.00 73 1012.1
20260508001004 0 0.0 0.0 0.00 0.00 0.00 1012.1
20260508000903 0 0.0 0.0 0.00 0.00 0.00 1012.2
20260508000804 0 0.0 0.0 0.00 0.00 0.00 1012.2
20260508000704 0 0.0 0.0 0.00 0.00 0.00 1012.2
20260508000603 0 0.0 0.0 0.00 0.00 0.00 1012.2
20260508000504 0 0.0 0.0 0.00 0.00 0.00 1012.3
20260508000404 0 0.0 0.0 0.00 0.00 0.00 1012.2
20260508000305 0 0.0 0.0 0.00 0.00 0.00 1012.2
20260508000204 0 0.0 0.0 0.00 0.00 0.00 1012.3
20260508000003 0 0.0 0.0 0.00 0.00 0.00 1012.4
20260507235903 0 0.0 0.0 0.00 0.00 0.00 1012.4
20260507235803 0 0.0 0.0 0.00 0.00 0.00 1012.3
20260507235704 0 0.0 0.0 0.00 0.00 0.00 1012.3
20260507235603 0 0.0 0.0 0.00 0.00 0.00 1012.2
20260507235504 0 0.0 0.0 0.00 0.00 0.00 1012.3
20260507235402 0 0.0 0.0 0.00 0.00 0.00 1012.2
20260507235306 0 0.0 0.0 0.00 0.00 0.00 1012.3
20260507235203 0 0.0 0.0 0.00 0.00 0.00 1012.3
20260507235104 0 0.0 0.0 0.00 0.00 0.00 1012.3
20260507235004 0 0.0 0.0 0.00 0.00 0.00 1012.2
20260507234903 0 0.0 0.0 0.00 0.00 0.00 1012.2
20260507234803 0 0.0 0.0 0.00 0.00 0.00 1012.1
20260507234703 0 0.0 0.0 0.00 0.00 0.00 1012.2
20260507234604 0 0.0 0.0 0.00 0.00 0.00 1012.2
20260507234503 0 0.0 0.0 0.00 0.00 0.00 1012.1
20260507234403 0 0.0 0.0 0.00 0.00 0.00 1012.1
20260507234303 0 0.0 0.0 0.00 0.00 0.00 1012.1
20260507234203 77 0 5.0 4.0 0.00 0.00 0.00 73 1012.1
20260507234103 77 0 5.0 7.0 0.00 0.00 0.00 73 1012.1
20260507234004 77 0 5.0 7.0 0.00 0.00 0.00 73 1012.1
20260507233904 77 0 5.0 7.0 0.00 0.00 0.00 73 1012.0
20260507233803 77 0 5.0 7.0 0.00 0.00 0.00 73 1012.1
20260507233632 77 0 5.0 7.0 0.00 0.00 0.00 73 1012.1
20260507233533 77 0 5.0 7.0 0.00 0.00 0.00 73 1012.1
20260507233433 77 0 5.0 7.0 0.00 0.00 0.00 73 1012.0
20260507233333 77 0 5.0 7.0 0.00 0.00 0.00 73 1012.1
20260507233232 77 0 5.0 7.0 0.00 0.00 0.00 73 1012.1
20260507233134 0 0 7.0 7.0 0.00 0.00 0.00 1012.0
20260507233033 0 0.0 0.0 0.00 0.00 0.00 1011.9
20260507232932 0 0.0 0.0 0.00 0.00 0.00 1011.9
20260507232833 0 0.0 0.0 0.00 0.00 0.00 1012.0
20260507232732 0 0.0 0.0 0.00 0.00 0.00 1011.9
20260507232632 0 0.0 0.0 0.00 0.00 0.00 1011.9
20260507232532 0 0.0 0.0 0.00 0.00 0.00 1011.8
20260507232432 0 0.0 0.0 0.00 0.00 0.00 1011.7
20260507232332 0 0.0 0.0 0.00 0.00 0.00 1011.8
20260507232232 0 0.0 0.0 0.00 0.00 0.00 1011.8
20260507232132 0 0.0 0.0 0.00 0.00 0.00 1011.9
20260507232032 0 0.0 0.0 0.00 0.00 0.00 1011.9
20260507231932 0 0.0 0.0 0.00 0.00 0.00 1011.8
20260507231833 0 0.0 0.0 0.00 0.00 0.00 1011.9
20260507231732 0 0.0 0.0 0.00 0.00 0.00 1011.9
20260507231604 0 0.0 0.0 0.00 0.00 0.00 1011.9
20260507231504 0 0.0 0.0 0.00 0.00 0.00 1012.0
20260507231404 0 0.0 0.0 0.00 0.00 0.00 1011.9
20260507231303 0 0.0 0.0 0.00 0.00 0.00 1012.1
20260507231204 0 0.0 0.0 0.00 0.00 0.00 1012.0
20260507231104 0 0.0 0.0 0.00 0.00 0.00 1012.0
20260507231003 0 0.0 0.0 0.00 0.00 0.00 1011.8
20260507230904 0 0.0 0.0 0.00 0.00 0.00 1011.8
20260507230803 0 0.0 0.0 0.00 0.00 0.00 1011.7
20260507230702 0 0.0 0.0 0.00 0.00 0.00 1011.7
20260507230603 0 0.0 0.0 0.00 0.00 0.00 1011.7
20260507230503 0 0.0 0.0 0.00 0.00 0.00 1011.6
20260507230403 0 0.0 0.0 0.00 0.00 0.00 1011.6
20260507230305 0 0.0 0.0 0.00 0.00 0.00 1011.7
20260507230206 0 0.0 0.0 0.00 0.00 0.00 1011.7
20260507230054 0 0.0 0.0 0.00 0.00 0.00 1011.7
20260507225951 0 0.0 0.0 0.00 0.00 0.00 1011.8
20260507225849 0 0.0 0.0 0.00 0.00 0.00 1011.8
20260507225751 0 110 4.0 3.0 0.00 0.00 0.00 1011.7
20260507225650 78 110 4.0 6.0 0.00 0.00 0.00 72 1011.8
20260507225551 78 110 4.0 6.0 0.00 0.00 0.00 72 1011.8
20260507225450 78 110 4.0 6.0 0.00 0.00 0.00 72 1011.7
20260507225348 78 110 4.0 6.0 0.00 0.00 0.00 72 1011.7
20260507225248 78 110 4.0 6.0 0.00 0.00 0.00 72 1011.7
20260507225148 78 110 4.0 6.0 0.00 0.00 0.00 72 1011.7
20260507225048 78 110 4.0 6.0 0.00 0.00 0.00 72 1011.8
20260507224948 78 110 4.0 6.0 0.00 0.00 0.00 72 1011.7
20260507224848 78 110 4.0 6.0 0.00 0.00 0.00 72 1011.6
20260507224747 78 110 4.0 6.0 0.00 0.00 0.00 72 1011.7
20260507224648 78 45 4.0 6.0 0.00 0.00 0.00 71 1011.7
20260507224547 78 83 2.0 6.0 0.00 0.00 0.00 71 1011.7
20260507224446 78 83 3.0 6.0 0.00 0.00 0.00 71 1011.6
20260507224349 78 69 4.0 6.0 0.00 0.00 0.00 71 1011.7
20260507224247 78 82 3.0 5.0 0.00 0.00 0.00 72 1011.7
20260507224147 78 89 2.0 4.0 0.00 0.00 0.00 71 1011.7
20260507224048 0 0.0 0.0 0.00 0.00 0.00 1011.7
20260507223946 0 0.0 0.0 0.00 0.00 0.00 1011.8
20260507223846 0 0.0 0.0 0.00 0.00 0.00 1011.8
20260507223747 0 0.0 0.0 0.00 0.00 0.00 1011.7
20260507223646 0 0.0 0.0 0.00 0.00 0.00 1011.7
20260507223546 0 0.0 0.0 0.00 0.00 0.00 1011.7
20260507223445 0 0.0 0.0 0.00 0.00 0.00 1011.7
20260507223344 0 0.0 0.0 0.00 0.00 0.00 1011.6
20260507223245 0 0.0 0.0 0.00 0.00 0.00 1011.7
20260507223144 0 0.0 0.0 0.00 0.00 0.00 1011.7
20260507223045 0 0.0 0.0 0.00 0.00 0.00 1011.7
20260507222942 0 0.0 0.0 0.00 0.00 0.00 1011.6
20260507222842 0 0.0 0.0 0.00 0.00 0.00 1011.6
20260507222742 0 0.0 0.0 0.00 0.00 0.00 1011.6
20260507222642 0 0.0 0.0 0.00 0.00 0.00 1011.6
20260507222543 0 0.0 0.0 0.00 0.00 0.00 1011.6
20260507222441 0 0.0 0.0 0.00 0.00 0.00 1011.6
20260507222340 0 0.0 0.0 0.00 0.00 0.00 1011.6
20260507222241 0 0.0 0.0 0.00 0.00 0.00 1011.6
20260507222141 0 0.0 0.0 0.00 0.00 0.00 1011.6
20260507222040 0 0.0 0.0 0.00 0.00 0.00 1011.6
20260507221939 0 0.0 0.0 0.00 0.00 0.00 1011.7
20260507221838 0 0.0 0.0 0.00 0.00 0.00 1011.6
20260507221738 0 0.0 0.0 0.00 0.00 0.00 1011.7
20260507221639 0 0.0 0.0 0.00 0.00 0.00 1011.7
20260507221539 0 0.0 0.0 0.00 0.00 0.00 1011.7
20260507221437 0 0.0 0.0 0.00 0.00 0.00 1011.7
20260507221336 0 0.0 0.0 0.00 0.00 0.00 1011.7
20260507221237 0 0.0 0.0 0.00 0.00 0.00 1011.7
20260507221137 0 0.0 0.0 0.00 0.00 0.00 1011.7
20260507221037 0 0.0 0.0 0.00 0.00 0.00 1011.7
20260507220934 0 0.0 0.0 0.00 0.00 0.00 1011.8
20260507220833 0 0.0 0.0 0.00 0.00 0.00 1011.9
20260507220734 0 0.0 0.0 0.00 0.00 0.00 1011.8
20260507220634 0 0.0 0.0 0.00 0.00 0.00 1011.7
20260507220533 0 0.0 0.0 0.00 0.00 0.00 1011.8
20260507220432 0 0.0 0.0 0.00 0.00 0.00 1011.8
20260507220332 79 103 3.0 5.0 0.00 0.00 0.00 71 1011.8
20260507220232 79 103 3.0 5.0 0.00 0.00 0.00 71 1011.8
20260507220133 79 103 3.0 5.0 0.00 0.00 0.00 71 1011.8
20260507220034 79 103 3.0 5.0 0.00 0.00 0.00 71 1011.8
20260507215931 79 103 3.0 6.0 0.00 0.00 0.00 71 1011.9
20260507215831 79 103 3.0 6.0 0.00 0.00 0.00 71 1011.8
20260507215731 79 103 3.0 6.0 0.00 0.00 0.00 71 1011.8
20260507215631 79 103 3.0 6.0 0.00 0.00 0.00 71 1011.8
20260507215531 79 103 3.0 6.0 0.00 0.00 0.00 71 1011.8
20260507215431 79 103 3.0 6.0 0.00 0.00 0.00 71 1011.9
20260507215332 79 89 2.0 6.0 0.00 0.00 0.00 71 1011.9
20260507215230 79 86 2.0 6.0 0.00 0.00 0.00 71 1011.9
20260507215131 79 85 3.0 6.0 0.00 0.00 0.00 72 1012.0
20260507215032 78 327 2.0 6.0 0.00 0.00 0.00 72 1012.0
20260507214929 78 298 1.0 6.0 0.00 0.00 0.00 72 1011.9
20260507214831 78 97 1.0 5.0 0.00 0.00 0.00 72 1012.0
20260507214730 78 97 2.0 5.0 0.00 0.00 0.00 72 1011.9
20260507214631 0 0.0 0.0 0.00 0.00 0.00 1011.9
20260507214531 0 0.0 0.0 0.00 0.00 0.00 1011.9
20260507214429 0 0.0 0.0 0.00 0.00 0.00 1011.9
20260507214329 0 0.0 0.0 0.00 0.00 0.00 1011.9
20260507214229 0 0.0 0.0 0.00 0.00 0.00 1011.9
20260507214129 0 0.0 0.0 0.00 0.00 0.00 1011.9
20260507214029 0 0.0 0.0 0.00 0.00 0.00 1012.0
20260507213928 0 0.0 0.0 0.00 0.00 0.00 1012.0
20260507213827 0 123 2.0 4.0 0.00 0.00 0.00 1012.0
20260507213728 79 123 2.0 4.0 0.00 0.00 0.00 71 1012.0
20260507213627 79 123 2.0 4.0 0.00 0.00 0.00 71 1012.0
20260507213527 79 123 2.0 5.0 0.00 0.00 0.00 71 1012.0
20260507213425 79 123 2.0 6.0 0.00 0.00 0.00 71 1012.0
20260507213304 79 123 2.0 6.0 0.00 0.00 0.00 71 1011.9
20260507213203 79 123 2.0 6.0 0.00 0.00 0.00 71 1011.9
20260507213103 79 123 2.0 6.0 0.00 0.00 0.00 71 1011.9
20260507213004 79 123 2.0 6.0 0.00 0.00 0.00 71 1012.0
20260507212905 79 123 2.0 6.0 0.00 0.00 0.00 71 1012.0
20260507212802 79 347 2.0 6.0 0.00 0.00 0.00 71 1012.0
20260507212703 79 104 3.0 6.0 0.00 0.00 0.00 71 1012.0
20260507212603 79 106 3.0 6.0 0.00 0.00 0.00 71 1012.1
20260507212502 79 87 2.0 6.0 0.00 0.00 0.00 71 1012.0
20260507212403 79 93 2.0 4.0 0.00 0.00 0.00 72 1012.0
20260507212302 79 93 3.0 4.0 0.00 0.00 0.00 71 1012.0
20260507212203 79 82 3.0 4.0 0.00 0.00 0.00 71 1011.9
20260507212103 79 80 3.0 4.0 0.00 0.00 0.00 71 1012.0
20260507212003 0 0.0 0.0 0.00 0.00 0.00 1012.0
20260507211903 0 0.0 0.0 0.00 0.00 0.00 1012.0
20260507211803 0 0.0 0.0 0.00 0.00 0.00 1012.1
20260507211703 0 0.0 0.0 0.00 0.00 0.00 1012.1
20260507211603 0 0.0 0.0 0.00 0.00 0.00 1012.2
20260507211504 0 0.0 0.0 0.00 0.00 0.00 1012.2
20260507211403 0 0.0 0.0 0.00 0.00 0.00 1012.2
20260507211303 0 0.0 0.0 0.00 0.00 0.00 1012.2
20260507211203 0 0.0 0.0 0.00 0.00 0.00 1012.2
20260507211104 0 0.0 0.0 0.00 0.00 0.00 1012.2
20260507211003 0 0.0 0.0 0.00 0.00 0.00 1012.2
20260507210903 0 0.0 0.0 0.00 0.00 0.00 1012.2
20260507210804 0 0.0 0.0 0.00 0.00 0.00 1012.2
20260507210704 0 0.0 0.0 0.00 0.00 0.00 1012.2
20260507210603 0 0.0 0.0 0.00 0.00 0.00 1012.2
20260507210503 0 0.0 0.0 0.00 0.00 0.00 1012.2
20260507210333 0 0.0 0.0 0.00 0.00 0.00 1012.1
20260507210232 0 0.0 0.0 0.00 0.00 0.00 1012.2
20260507210131 0 0.0 0.0 0.00 0.00 0.00 1012.2
20260507210020 0 0.0 0.0 0.00 0.00 0.00 1012.2
20260507205918 0 0.0 0.0 0.00 0.00 0.00 1012.3
20260507205816 0 0.0 0.0 0.00 0.00 0.00 1012.3
20260507205717 0 0.0 0.0 0.00 0.00 0.00 1012.3
20260507205616 0 0.0 0.0 0.00 0.00 0.00 1012.3
20260507205516 0 0.0 0.0 0.00 0.00 0.00 1012.3
20260507205416 0 0.0 0.0 0.00 0.00 0.00 1012.3
20260507205315 0 0.0 0.0 0.00 0.00 0.00 1012.3
20260507205215 0 0.0 0.0 0.00 0.00 0.00 1012.3
20260507205115 0 0.0 0.0 0.00 0.00 0.00 1012.4
20260507205014 0 0.0 0.0 0.00 0.00 0.00 1012.4
20260507204914 0 0.0 0.0 0.00 0.00 0.00 1012.5
20260507204813 0 0.0 0.0 0.00 0.00 0.00 1012.4
20260507204713 0 0.0 0.0 0.00 0.00 0.00 1012.4
20260507204613 0 0.0 0.0 0.00 0.00 0.00 1012.5
20260507204513 0 0.0 0.0 0.00 0.00 0.00 1012.4
20260507204412 0 0.0 0.0 0.00 0.00 0.00 1012.5
20260507204311 0 0.0 0.0 0.00 0.00 0.00 1012.5
20260507204210 0 0.0 0.0 0.00 0.00 0.00 1012.5
20260507204111 0 0.0 0.0 0.00 0.00 0.00 1012.5
20260507204011 0 0.0 0.0 0.00 0.00 0.00 1012.6
20260507203910 0 0.0 0.0 0.00 0.00 0.00 1012.6
20260507203809 0 0.0 0.0 0.00 0.00 0.00 1012.6
20260507203710 0 0.0 0.0 0.00 0.00 0.00 1012.6
20260507203609 0 0.0 0.0 0.00 0.00 0.00 1012.7
20260507203510 0 0.0 0.0 0.00 0.00 0.00 1012.7
20260507203409 0 0.0 0.0 0.00 0.00 0.00 1012.7
20260507203306 0 0.0 0.0 0.00 0.00 0.00 1012.7
20260507203206 77 92 4.0 6.0 0.00 0.00 0.00 73 1012.7
20260507203106 77 92 4.0 6.0 0.00 0.00 0.00 73 1012.6
20260507203006 77 92 4.0 6.0 0.00 0.00 0.00 73 1012.7
20260507202906 77 92 4.0 6.0 0.00 0.00 0.00 73 1012.7
20260507202804 77 92 4.0 6.0 0.00 0.00 0.00 73 1012.8
20260507202704 77 92 4.0 6.0 0.00 0.00 0.00 73 1012.9
20260507202603 77 92 4.0 6.0 0.00 0.00 0.00 73 1012.8
20260507202504 77 92 4.0 7.0 0.00 0.00 0.00 73 1012.8
20260507202404 77 92 4.0 7.0 0.00 0.00 0.00 73 1012.8
20260507202306 77 92 4.0 7.0 0.00 0.00 0.00 73 1012.8
20260507202204 76 52 2.0 7.0 0.00 0.00 0.00 73 1012.8
20260507202103 76 100 5.0 7.0 0.00 0.00 0.00 73 1012.7
20260507202005 76 100 5.0 7.0 0.00 0.00 0.00 73 1012.8
20260507201904 76 100 5.0 7.0 0.00 0.00 0.00 73 1012.8
20260507201803 76 100 5.0 7.0 0.00 0.00 0.00 73 1012.7
20260507201704 76 100 5.0 7.0 0.00 0.00 0.00 73 1012.6
20260507201603 77 102 7.0 7.0 0.00 0.00 0.00 73 1012.6
20260507201504 0 0.0 0.0 0.00 0.00 0.00 1012.7
20260507201332 0 0.0 0.0 0.00 0.00 0.00 1012.6
20260507201232 0 0.0 0.0 0.00 0.00 0.00 1012.6
20260507201131 0 0.0 0.0 0.00 0.00 0.00 1012.6
20260507201004 0 0.0 0.0 0.00 0.00 0.00 1012.7
20260507200903 0 0.0 0.0 0.00 0.00 0.00 1012.6
20260507200802 0 0.0 0.0 0.00 0.00 0.00 1012.6
20260507200701 0 0.0 0.0 0.00 0.00 0.00 1012.7
20260507200602 0 0.0 0.0 0.00 0.00 0.00 1012.7
20260507200501 0 0.0 0.0 0.00 0.00 0.00 1012.6
20260507200402 0 0.0 0.0 0.00 0.00 0.00 1012.7
20260507200300 0 0.0 0.0 0.00 0.00 0.00 1012.7
20260507200200 76 47 3.0 4.0 0.00 0.00 0.00 73 1012.7
20260507200100 76 47 3.0 6.0 0.00 0.00 0.00 73 1012.7
20260507200000 76 47 3.0 6.0 0.00 0.00 0.00 73 1012.7
20260507195900 76 47 3.0 6.0 0.00 0.00 0.00 73 1012.7
20260507195758 76 47 3.0 6.0 0.00 0.00 0.00 73 1012.7
20260507195657 76 47 3.0 6.0 0.00 0.00 0.00 73 1012.8
20260507195558 76 47 3.0 6.0 0.00 0.00 0.00 73 1012.8
20260507195458 76 47 3.0 6.0 0.00 0.00 0.00 73 1012.8
20260507195357 76 47 3.0 6.0 0.00 0.00 0.00 73 1012.8
20260507195258 76 47 3.0 6.0 0.00 0.00 0.00 73 1012.9
20260507195158 76 8 3.0 6.0 0.00 0.00 0.00 72 1013.0
20260507195059 0 0.0 0.0 0.00 0.00 0.00 1013.0
20260507194957 0 0.0 0.0 0.00 0.00 0.00 1013.1
20260507194856 0 0.0 0.0 0.00 0.00 0.00 1013.1
20260507194757 0 0.0 0.0 0.00 0.00 0.00 1013.1
20260507194656 0 0.0 0.0 0.00 0.00 0.00 1013.1
20260507194557 0 0.0 0.0 0.00 0.00 0.00 1013.1
20260507194454 0 0.0 0.0 0.00 0.00 0.00 1013.1
20260507194354 0 0.0 0.0 0.00 0.00 0.00 1013.1
20260507194254 0 0.0 0.0 0.00 0.00 0.00 1013.1
20260507194154 0 0.0 0.0 0.00 0.00 0.00 1013.1
20260507194054 0 0.0 0.0 0.00 0.00 0.00 1013.1
20260507193953 0 0.0 0.0 0.00 0.00 0.00 1013.1
20260507193852 0 1 2.0 2.0 0.00 0.00 0.00 1013.1
20260507193753 77 1 2.0 3.0 0.00 0.00 0.00 72 1013.2
20260507193652 77 1 2.0 3.0 0.00 0.00 0.00 72 1013.2
20260507193552 77 1 2.0 3.0 0.00 0.00 0.00 72 1013.2
20260507193451 77 1 2.0 3.0 0.00 0.00 0.00 72 1013.1
20260507193351 77 1 2.0 3.0 0.00 0.00 0.00 72 1013.3
20260507193251 77 1 2.0 3.0 0.00 0.00 0.00 72 1013.3
20260507193150 77 1 2.0 3.0 0.00 0.00 0.00 72 1013.3
20260507193051 77 1 2.0 3.0 0.00 0.00 0.00 72 1013.3
20260507192951 77 1 2.0 3.0 0.00 0.00 0.00 72 1013.3
20260507192851 77 268 2.0 3.0 0.00 0.00 0.00 72 1013.3
20260507192751 77 259 2.0 3.0 0.00 0.00 0.00 72 1013.4
20260507192651 77 261 1.0 3.0 0.00 0.00 0.00 72 1013.3
20260507192551 77 86 1.0 3.0 0.00 0.00 0.00 73 1013.4
20260507192451 77 86 2.0 3.0 0.00 0.00 0.00 73 1013.3
20260507192351 76 86 3.0 3.0 0.00 0.00 0.00 73 1013.4
20260507192251 0 0.0 0.0 0.00 0.00 0.00 1013.3
20260507192151 0 0.0 0.0 0.00 0.00 0.00 1013.3
20260507192048 0 0.0 0.0 0.00 0.00 0.00 1013.3
20260507191948 0 138 2.0 2.0 0.00 0.00 0.00 1013.3
20260507191849 0 138 2.0 2.0 0.00 0.00 0.00 1013.4
20260507191749 0 138 2.0 2.0 0.00 0.00 0.00 1013.4
20260507191648 0 138 2.0 2.0 0.00 0.00 0.00 1013.5
20260507191546 0 138 2.0 2.0 0.00 0.00 0.00 1013.5
20260507191447 0 138 2.0 2.0 0.00 0.00 0.00 1013.5
20260507191347 0 138 2.0 2.0 0.00 0.00 0.00 1013.6
20260507191248 0 138 2.0 2.0 0.00 0.00 0.00 1013.6
20260507191147 0 138 2.0 2.0 0.00 0.00 0.00 1013.6
20260507191046 0 138 2.0 2.0 0.00 0.00 0.00 1013.6
20260507190947 0 0.0 0.0 0.00 0.00 0.00 1013.7
20260507190846 0 0.0 0.0 0.00 0.00 0.00 1013.7
20260507190745 0 0.0 0.0 0.00 0.00 0.00 1013.7
20260507190645 0 0.0 0.0 0.00 0.00 0.00 1013.7
20260507190545 0 0.0 0.0 0.00 0.00 0.00 1013.6
20260507190445 0 0.0 0.0 0.00 0.00 0.00 1013.7
20260507190344 0 0.0 0.0 0.00 0.00 0.00 1013.7
20260507190243 0 0.0 0.0 0.00 0.00 0.00 1013.6
20260507190143 0 0.0 0.0 0.00 0.00 0.00 1013.6
20260507190043 0 0.0 0.0 0.00 0.00 0.00 1013.7
20260507185942 0 0.0 0.0 0.00 0.00 0.00 1013.7
20260507185843 0 0.0 0.0 0.00 0.00 0.00 1013.7
20260507185742 0 0.0 0.0 0.00 0.00 0.00 1013.7
20260507185641 74 131 2.0 3.0 0.00 0.00 0.00 75 1013.7
20260507185542 74 131 2.0 3.0 0.00 0.00 0.00 75 1013.7
20260507185441 74 131 2.0 3.0 0.00 0.00 0.00 75 1013.7
20260507185342 74 131 2.0 3.0 0.00 0.00 0.00 75 1013.7
20260507185239 74 131 2.0 3.0 0.00 0.00 0.00 75 1013.8
20260507185139 74 131 2.0 3.0 0.00 0.00 0.00 75 1013.8
20260507185039 74 131 2.0 3.0 0.00 0.00 0.00 75 1013.8
20260507184939 74 131 2.0 3.0 0.00 0.00 0.00 75 1013.8
20260507184839 74 131 2.0 3.0 0.00 0.00 0.00 75 1013.8
20260507184739 74 131 2.0 3.0 0.00 0.00 0.00 75 1013.7
20260507184639 74 97 1.0 1.0 0.00 0.00 0.00 75 1013.8
20260507184539 0 0.0 0.0 0.00 0.00 0.00 1013.8
20260507184432 0 0.0 0.0 0.00 0.00 0.00 1013.7
20260507184332 0 0.0 0.0 0.00 0.00 0.00 1013.8
20260507184232 0 0.0 0.0 0.00 0.00 0.00 1013.8
20260507184132 0 0.0 0.0 0.00 0.00 0.00 1013.8
20260507184032 0 0.0 0.0 0.00 0.00 0.00 1013.8
20260507183932 0 0.0 0.0 0.00 0.00 0.00 1013.8
20260507183832 0 0.0 0.0 0.00 0.00 0.00 1013.8
20260507183732 0 0.0 0.0 0.00 0.00 0.00 1013.8
20260507183632 0 0.0 0.0 0.00 0.00 0.00 1013.8
20260507183533 0 0.0 0.0 0.00 0.00 0.00 1013.8
20260507183434 0 0.0 0.0 0.00 0.00 0.00 1013.7
20260507183332 0 0.0 0.0 0.00 0.00 0.00 1013.8
20260507183231 0 0.0 0.0 0.00 0.00 0.00 1013.8
20260507183132 0 0.0 0.0 0.00 0.00 0.00 1013.7
20260507183033 0 0.0 0.0 0.00 0.00 0.00 1013.8
20260507182932 0 0.0 0.0 0.00 0.00 0.00 1013.8
20260507182833 0 0.0 0.0 0.00 0.00 0.00 1013.8
20260507182733 0 0.0 0.0 0.00 0.00 0.00 1013.9
20260507182632 0 0.0 0.0 0.00 0.00 0.00 1013.8
20260507182533 0 0.0 0.0 0.00 0.00 0.00 1013.9
20260507182432 0 0.0 0.0 0.00 0.00 0.00 1013.9
20260507182330 0 0.0 0.0 0.00 0.00 0.00 1013.8
20260507182231 0 0.0 0.0 0.00 0.00 0.00 1013.9
20260507182130 0 0.0 0.0 0.00 0.00 0.00 1013.9
20260507182031 0 0.0 0.0 0.00 0.00 0.00 1013.8
20260507181930 0 0.0 0.0 0.00 0.00 0.00 1013.8
20260507181828 0 0.0 0.0 0.00 0.00 0.00 1013.8
20260507181729 74 106 2.0 0.0 0.00 0.00 0.00 75 1013.9
20260507181628 74 106 2.0 4.0 0.00 0.00 0.00 75 1013.9
20260507181528 74 106 2.0 5.0 0.00 0.00 0.00 75 1014.0
20260507181428 74 106 2.0 5.0 0.00 0.00 0.00 75 1014.0
20260507181326 74 106 2.0 5.0 0.00 0.00 0.00 75 1014.0
20260507181226 74 106 2.0 5.0 0.00 0.00 0.00 75 1013.9
20260507181127 74 106 2.0 5.0 0.00 0.00 0.00 75 1014.0
20260507181027 74 106 2.0 5.0 0.00 0.00 0.00 75 1013.9
20260507180926 74 106 2.0 5.0 0.00 0.00 0.00 75 1014.0
20260507180827 74 106 2.0 5.0 0.00 0.00 0.00 75 1014.1
20260507180726 74 0 2.0 5.0 0.00 0.00 0.00 75 1014.1
20260507180626 74 0 2.0 5.0 0.00 0.00 0.00 76 1014.1
20260507180525 74 76 1.0 2.0 0.00 0.00 0.00 78 1014.1
20260507180426 0 0.0 0.0 0.00 0.00 0.00 1014.2
20260507180327 0 0.0 0.0 0.00 0.00 0.00 1014.2
20260507180225 0 0.0 0.0 0.00 0.00 0.00 1014.2
20260507180126 0 0.0 0.0 0.00 0.00 0.00 1014.1
20260507180025 0 0.0 0.0 0.00 0.00 0.00 1014.2
20260507175925 0 0.0 0.0 0.00 0.00 0.00 1014.2
20260507175824 0 0.0 0.0 0.00 0.00 0.00 1014.2
20260507175723 0 0.0 0.0 0.00 0.00 0.00 1014.2
20260507175623 0 0.0 0.0 0.00 0.00 0.00 1014.2
20260507175523 0 0.0 0.0 0.00 0.00 0.00 1014.1
20260507175422 0 0.0 0.0 0.00 0.00 0.00 1014.1
20260507175323 0 0.0 0.0 0.00 0.00 0.00 1014.1
20260507175221 0 0.0 0.0 0.00 0.00 0.00 1014.1
20260507175121 0 0.0 0.0 0.00 0.00 0.00 1014.1
20260507175022 0 0.0 0.0 0.00 0.00 0.00 1014.1
20260507174922 0 0.0 0.0 0.00 0.00 0.00 1014.1
20260507174823 0 0.0 0.0 0.00 0.00 0.00 1014.1
20260507174720 0 0.0 0.0 0.00 0.00 0.00 1014.1
20260507174619 0 0.0 0.0 0.00 0.00 0.00 1014.2
20260507174519 0 0.0 0.0 0.00 0.00 0.00 1014.2
20260507174419 0 0.0 0.0 0.00 0.00 0.00 1014.2
20260507174319 0 0.0 0.0 0.00 0.00 0.00 1014.1
20260507174218 0 0.0 0.0 0.00 0.00 0.00 1014.2
20260507174117 0 0.0 0.0 0.00 0.00 0.00 1014.3
20260507174018 0 0.0 0.0 0.00 0.00 0.00 1014.3
20260507173918 0 0.0 0.0 0.00 0.00 0.00 1014.4
20260507173817 0 0.0 0.0 0.00 0.00 0.00 1014.5
20260507173715 0 0.0 0.0 0.00 0.00 0.00 1014.5
20260507173617 0 0.0 0.0 0.00 0.00 0.00 1014.5
20260507173516 0 0.0 0.0 0.00 0.00 0.00 1014.5
20260507173416 0 0.0 0.0 0.00 0.00 0.00 1014.5
20260507173315 0 0.0 0.0 0.00 0.00 0.00 1014.6
20260507173214 0 0.0 0.0 0.00 0.00 0.00 1014.5
20260507173114 71 0 2.0 3.0 0.00 0.00 0.00 78 1014.5
20260507173014 71 0 2.0 4.0 0.00 0.00 0.00 78 1014.5
20260507172913 71 0 2.0 4.0 0.00 0.00 0.00 78 1014.4
20260507172814 71 0 2.0 4.0 0.00 0.00 0.00 78 1014.5
20260507172712 71 0 2.0 5.0 0.00 0.00 0.00 78 1014.5
20260507172613 71 0 2.0 5.0 0.00 0.00 0.00 78 1014.5
20260507172511 71 0 2.0 5.0 0.00 0.00 0.00 78 1014.6
20260507172414 71 0 2.0 6.0 0.00 0.00 0.00 78 1014.6
20260507172312 71 0 2.0 6.0 0.00 0.00 0.00 78 1014.6
20260507172212 71 0 2.0 6.0 0.00 0.00 0.00 78 1014.6
20260507172113 71 0 2.0 6.0 0.00 0.00 0.00 77 1014.5
20260507172012 71 0 2.0 6.0 0.00 0.00 0.00 77 1014.5
20260507171913 71 0 2.0 6.0 0.00 0.00 0.00 78 1014.5
20260507171812 71 0 2.0 6.0 0.00 0.00 0.00 78 1014.6
20260507171710 71 0 2.0 6.0 0.00 0.00 0.00 79 1014.6
20260507171613 70 0 3.0 6.0 0.00 0.00 0.00 78 1014.7
20260507171511 70 0 5.0 6.0 0.00 0.00 0.00 78 1014.6
20260507171413 0 0.0 0.0 0.00 0.00 0.00 1014.6
20260507171312 0 0.0 0.0 0.00 0.00 0.00 1014.7
20260507171210 0 0.0 0.0 0.00 0.00 0.00 1014.7
20260507171110 0 0.0 0.0 0.00 0.00 0.00 1014.8
20260507171010 0 0.0 0.0 0.00 0.00 0.00 1014.8
20260507170910 0 0.0 0.0 0.00 0.00 0.00 1014.8
20260507170810 0 0.0 0.0 0.00 0.00 0.00 1014.7
20260507170710 0 0.0 0.0 0.00 0.00 0.00 1014.8
20260507170609 69 0 2.0 4.0 0.00 0.00 0.00 81 1014.8
20260507170509 69 0 2.0 4.0 0.00 0.00 0.00 81 1014.8
20260507170410 69 0 2.0 4.0 0.00 0.00 0.00 81 1014.8
20260507170309 69 0 2.0 4.0 0.00 0.00 0.00 81 1014.8
20260507170205 69 0 2.0 5.0 0.00 0.00 0.00 81 1014.8
20260507170105 69 0 2.0 7.0 0.00 0.00 0.00 81 1014.8
20260507170006 69 0 2.0 7.0 0.00 0.00 0.00 81 1014.8
20260507165905 69 0 2.0 7.0 0.00 0.00 0.00 81 1014.9
20260507165805 69 0 2.0 7.0 0.00 0.00 0.00 81 1014.9
20260507165704 69 0 2.0 7.0 0.00 0.00 0.00 81 1014.7
20260507165605 69 0 2.0 7.0 0.00 0.00 0.00 81 1014.8
20260507165505 69 0 2.0 7.0 0.00 0.00 0.00 81 1014.7
20260507165404 69 0 2.0 7.0 0.00 0.00 0.00 81 1014.7
20260507165306 68 0 4.0 7.0 0.00 0.00 0.00 81 1014.6
20260507165204 68 0 4.0 7.0 0.00 0.00 0.00 80 1014.7
20260507165103 0 0 4.0 4.0 0.00 0.00 0.00 1014.7
20260507165003 0 0.0 0.0 0.00 0.00 0.00 1014.6
20260507164903 0 0.0 0.0 0.00 0.00 0.00 1014.7
20260507164802 0 0.0 0.0 0.00 0.00 0.00 1014.7
20260507164703 0 0.0 0.0 0.00 0.00 0.00 1014.7
20260507164602 0 0.0 0.0 0.00 0.00 0.00 1014.7
20260507164504 0 0.0 0.0 0.00 0.00 0.00 1014.6
20260507164402 0 0.0 0.0 0.00 0.00 0.00 1014.7
20260507164303 0 0.0 0.0 0.00 0.00 0.00 1014.8
20260507164204 0 0.0 0.0 0.00 0.00 0.00 1014.7
20260507164103 0 0.0 0.0 0.00 0.00 0.00 1014.7
20260507164003 0 0.0 0.0 0.00 0.00 0.00 1014.6
20260507163901 0 0.0 0.0 0.00 0.00 0.00 1014.6
20260507163801 0 0.0 0.0 0.00 0.00 0.00 1014.6
20260507163700 0 0.0 0.0 0.00 0.00 0.00 1014.6
20260507163601 0 0.0 0.0 0.00 0.00 0.00 1014.6
20260507163501 0 0.0 0.0 0.00 0.00 0.00 1014.6
20260507163400 0 0.0 0.0 0.00 0.00 0.00 1014.6
20260507163259 0 0.0 0.0 0.00 0.00 0.00 1014.6
20260507163200 0 0.0 0.0 0.00 0.00 0.00 1014.5
20260507163058 0 0.0 0.0 0.00 0.00 0.00 1014.6
20260507163000 0 0.0 0.0 0.00 0.00 0.00 1014.5
20260507162857 0 0.0 0.0 0.00 0.00 0.00 1014.4
20260507162756 0 0.0 0.0 0.00 0.00 0.00 1014.4
20260507162657 0 0.0 0.0 0.00 0.00 0.00 1014.4
20260507162557 0 0.0 0.0 0.00 0.00 0.00 1014.4
20260507162457 0 0.0 0.0 0.00 0.00 0.00 1014.4
20260507162356 0 0.0 0.0 0.00 0.00 0.00 1014.4
20260507162255 67 0 2.0 3.0 0.00 0.00 0.00 82 1014.3
20260507162155 67 0 2.0 3.0 0.00 0.00 0.00 82 1014.2
20260507162056 67 0 2.0 3.0 0.00 0.00 0.00 82 1014.2
20260507161956 67 0 2.0 3.0 0.00 0.00 0.00 82 1014.2
20260507161832 67 0 2.0 3.0 0.00 0.00 0.00 82 1014.3
20260507161732 67 0 2.0 3.0 0.00 0.00 0.00 82 1014.3
20260507161632 67 0 2.0 3.0 0.00 0.00 0.00 82 1014.3
20260507161532 67 0 2.0 3.0 0.00 0.00 0.00 82 1014.3
20260507161432 67 0 2.0 3.0 0.00 0.00 0.00 82 1014.3
20260507161332 67 0 2.0 3.0 0.00 0.00 0.00 82 1014.3
20260507161203 67 0 1.0 3.0 0.00 0.00 0.00 83 1014.3
20260507161104 66 0 1.0 3.0 0.00 0.00 0.00 83 1014.3
20260507161002 66 0 2.0 3.0 0.00 0.00 0.00 83 1014.3
20260507160903 0 0.0 0.0 0.00 0.00 0.00 1014.3
20260507160803 0 0.0 0.0 0.00 0.00 0.00 1014.3
20260507160703 0 0.0 0.0 0.00 0.00 0.00 1014.3
20260507160603 0 0.0 0.0 0.00 0.00 0.00 1014.3
20260507160505 0 0.0 0.0 0.00 0.00 0.00 1014.3
20260507160403 0 0.0 0.0 0.00 0.00 0.00 1014.3
20260507160304 0 0.0 0.0 0.00 0.00 0.00 1014.4
20260507160203 0 0.0 0.0 0.00 0.00 0.00 1014.4
20260507160103 0 0.0 0.0 0.00 0.00 0.00 1014.4
20260507160004 0 0.0 0.0 0.00 0.00 0.00 1014.5
20260507155904 0 0.0 0.0 0.00 0.00 0.00 1014.5
20260507155803 0 0.0 0.0 0.00 0.00 0.00 1014.5
20260507155703 0 0.0 0.0 0.00 0.00 0.00 1014.4
20260507155604 0 0.0 0.0 0.00 0.00 0.00 1014.5
20260507155503 0 0.0 0.0 0.00 0.00 0.00 1014.5
20260507155404 0 0.0 0.0 0.00 0.00 0.00 1014.6
20260507155306 0 0.0 0.0 0.00 0.00 0.00 1014.6
20260507155204 0 0.0 0.0 0.00 0.00 0.00 1014.6
20260507155103 0 0.0 0.0 0.00 0.00 0.00 1014.6
20260507155004 0 0.0 0.0 0.00 0.00 0.00 1014.6
20260507154903 0 0.0 0.0 0.00 0.00 0.00 1014.7
20260507154803 0 0.0 0.0 0.00 0.00 0.00 1014.8
20260507154703 0 0.0 0.0 0.00 0.00 0.00 1014.7
20260507154604 0 0.0 0.0 0.00 0.00 0.00 1014.8
20260507154504 0 0.0 0.0 0.00 0.00 0.00 1014.8
20260507154403 0 0.0 0.0 0.00 0.00 0.00 1014.7
20260507154303 0 0.0 0.0 0.00 0.00 0.00 1014.6
20260507154203 0 0.0 0.0 0.00 0.00 0.00 1014.6
20260507154104 0 0.0 0.0 0.00 0.00 0.00 1014.6
20260507154005 0 0.0 0.0 0.00 0.00 0.00 1014.6
20260507153905 0 0.0 0.0 0.00 0.00 0.00 1014.6
20260507153803 0 0.0 0.0 0.00 0.00 0.00 1014.7
20260507153704 0 0.0 0.0 0.00 0.00 0.00 1014.6
20260507153603 0 0.0 0.0 0.00 0.00 0.00 1014.6
20260507153504 0 0.0 0.0 0.00 0.00 0.00 1014.7
20260507153403 0 0.0 0.0 0.00 0.00 0.00 1014.7
20260507153303 0 0.0 0.0 0.00 0.00 0.00 1014.6
20260507153204 0 0.0 0.0 0.00 0.00 0.00 1014.5
20260507153104 0 0.0 0.0 0.00 0.00 0.00 1014.6
20260507153005 0 0.0 0.0 0.00 0.00 0.00 1014.6
20260507152903 0 0.0 0.0 0.00 0.00 0.00 1014.6
20260507152805 0 0.0 0.0 0.00 0.00 0.00 1014.7
20260507152703 0 0.0 0.0 0.00 0.00 0.00 1014.7
20260507152603 0 0.0 0.0 0.00 0.00 0.00 1014.8
20260507152503 0 0.0 0.0 0.00 0.00 0.00 1014.8
20260507152404 0 0.0 0.0 0.00 0.00 0.00 1014.8
20260507152306 0 0.0 0.0 0.00 0.00 0.00 1014.8
20260507152203 0 0.0 0.0 0.00 0.00 0.00 1014.7
20260507152103 0 0.0 0.0 0.00 0.00 0.00 1014.8
20260507152002 64 0 3.0 4.0 0.00 0.00 0.00 84 1014.8
20260507151903 64 0 3.0 6.0 0.00 0.00 0.00 84 1014.8
20260507151803 64 0 3.0 6.0 0.00 0.00 0.00 84 1014.8
20260507151703 64 0 3.0 10.0 0.00 0.00 0.00 84 1014.7
20260507151603 64 0 3.0 10.0 0.00 0.00 0.00 84 1014.7
20260507151504 64 0 3.0 10.0 0.00 0.00 0.00 84 1014.8
20260507151404 64 0 3.0 10.0 0.00 0.00 0.00 84 1014.8
20260507151304 64 0 3.0 10.0 0.00 0.00 0.00 84 1014.8
20260507151204 64 0 3.0 10.0 0.00 0.00 0.00 84 1014.8
20260507151104 64 0 3.0 10.0 0.00 0.00 0.00 84 1014.8
20260507151003 64 0 3.0 10.0 0.00 0.00 0.00 84 1014.8
20260507150903 64 0 3.0 10.0 0.00 0.00 0.00 84 1014.8
20260507150802 65 0 3.0 10.0 0.00 0.00 0.00 84 1014.8
20260507150702 65 0 2.0 6.0 0.00 0.00 0.00 85 1014.8
20260507150604 65 0 1.0 3.0 0.00 0.00 0.00 85 1014.9
20260507150502 64 0 0.0 1.0 0.00 0.00 0.00 85 1014.9
20260507150404 64 0 0.0 1.0 0.00 0.00 0.00 86 1014.8
20260507150304 0 0.0 0.0 0.00 0.00 0.00 1014.8
20260507150203 0 0.0 0.0 0.00 0.00 0.00 1014.7
20260507150034 0 0.0 0.0 0.00 0.00 0.00 1014.9
20260507145932 0 0.0 0.0 0.00 0.00 0.00 1014.9
20260507145831 0 0.0 0.0 0.00 0.00 0.00 1014.8
20260507145731 0 0.0 0.0 0.00 0.00 0.00 1014.8
20260507145630 0 0.0 0.0 0.00 0.00 0.00 1014.8
20260507145529 0 0.0 0.0 0.00 0.00 0.00 1014.8
20260507145429 0 0.0 0.0 0.00 0.00 0.00 1014.8
20260507145330 0 0.0 0.0 0.00 0.00 0.00 1014.7
20260507145229 0 0.0 0.0 0.00 0.00 0.00 1014.7
20260507145103 0 0.0 0.0 0.00 0.00 0.00 1014.6
20260507145003 0 0.0 0.0 0.00 0.00 0.00 1014.6
20260507144903 0 0.0 0.0 0.00 0.00 0.00 1014.6
20260507144803 0 0.0 0.0 0.00 0.00 0.00 1014.5
20260507144703 0 0.0 0.0 0.00 0.00 0.00 1014.5
20260507144604 0 0.0 0.0 0.00 0.00 0.00 1014.5
20260507144504 0 0.0 0.0 0.00 0.00 0.00 1014.4
20260507144403 0 0.0 0.0 0.00 0.00 0.00 1014.4
20260507144303 0 0.0 0.0 0.00 0.00 0.00 1014.3
20260507144132 0 0.0 0.0 0.00 0.00 0.00 1014.3
20260507144033 0 0.0 0.0 0.00 0.00 0.00 1014.4
20260507143931 0 0.0 0.0 0.00 0.00 0.00 1014.3
20260507143832 0 0.0 0.0 0.00 0.00 0.00 1014.2
20260507143732 0 0.0 0.0 0.00 0.00 0.00 1014.2
20260507143631 0 0.0 0.0 0.00 0.00 0.00 1014.2
20260507143531 0 0.0 0.0 0.00 0.00 0.00 1014.2
20260507143432 0 0.0 0.0 0.00 0.00 0.00 1014.3
20260507143332 0 0.0 0.0 0.00 0.00 0.00 1014.3
20260507143233 0 0.0 0.0 0.00 0.00 0.00 1014.2
20260507143132 0 0.0 0.0 0.00 0.00 0.00 1014.2
20260507143033 0 0.0 0.0 0.00 0.00 0.00 1014.3
20260507142932 0 0.0 0.0 0.00 0.00 0.00 1014.2
20260507142832 0 0.0 0.0 0.00 0.00 0.00 1014.1
20260507142732 0 0.0 0.0 0.00 0.00 0.00 1014.2
20260507142633 0 0.0 0.0 0.00 0.00 0.00 1014.1
20260507142532 0 0.0 0.0 0.00 0.00 0.00 1014.1
20260507142419 0 0.0 0.0 0.00 0.00 0.00 1014.2
20260507142319 0 0.0 0.0 0.00 0.00 0.00 1014.1
20260507142219 0 0.0 0.0 0.00 0.00 0.00 1014.1
20260507142117 0 0.0 0.0 0.00 0.00 0.00 1014.1
20260507142018 0 0.0 0.0 0.00 0.00 0.00 1014.1
20260507141917 0 0.0 0.0 0.00 0.00 0.00 1014.0
20260507141817 0 0.0 0.0 0.00 0.00 0.00 1014.0
20260507141717 0 0.0 0.0 0.00 0.00 0.00 1013.9
20260507141615 0 0.0 0.0 0.00 0.00 0.00 1013.9
20260507141516 64 0 2.0 4.0 0.00 0.00 0.00 86 1013.9
20260507141415 64 0 2.0 4.0 0.00 0.00 0.00 86 1014.0
20260507141316 64 0 2.0 12.0 0.00 0.00 0.00 86 1013.9